<?xml version='1.0' encoding='UTF-8'?>
<gpx xmlns="http://www.topografix.com/GPX/1/1" creator="www.balnam.be" version="1.1" xmlns:xsi="http://www.w3.org/2001/XMLSchema-instance" xsi:schemaLocation="http://www.topografix.com/GPX/1/1 http://www.topografix.com/GPX/1/1/gpx.xsd">
<trk>
<name>hqgqg1</name>
<cmt>s</cmt>
<desc>Quaregnon Chemin n°1 </desc>
<link href="https://chemins.be/quaregnon/chemin/1"/><trkseg>
<trkpt lat="50.437674" lon="3.853320"><time>2026-05-02T19:54:45Z</time></trkpt>
<trkpt lat="50.440065" lon="3.859588"><time>2026-05-02T20:04:45Z</time></trkpt>
</trkseg>
</trk>
<trk>
<name>hqgqg2</name>
<cmt>r</cmt>
<desc>Quaregnon Chemin n°2 Rue de Picquery</desc>
<link href="https://chemins.be/quaregnon/chemin/2"/><trkseg>
<trkpt lat="50.426312" lon="3.867337"><time>2026-05-02T19:54:45Z</time></trkpt>
<trkpt lat="50.426404" lon="3.867967"><time>2026-05-02T20:04:45Z</time></trkpt>
<trkpt lat="50.426345" lon="3.868325"><time>2026-05-02T20:14:45Z</time></trkpt>
</trkseg></trk>
<trk>
<name>hqgqg2</name>
<cmt>b</cmt>
<desc>Quaregnon Chemin n°2 Rue de Picquery</desc>
<link href="https://chemins.be/quaregnon/chemin/2"/><trkseg>
<trkpt lat="50.426345" lon="3.868325"><time>2026-05-02T20:14:45Z</time></trkpt>
<trkpt lat="50.426183" lon="3.869316"><time>2026-05-02T20:24:45Z</time></trkpt>
<trkpt lat="50.426077" lon="3.870006"><time>2026-05-02T20:34:45Z</time></trkpt>
<trkpt lat="50.426055" lon="3.870669"><time>2026-05-02T20:44:45Z</time></trkpt>
</trkseg></trk>
<trk>
<name>hqgqg2</name>
<cmt>s</cmt>
<desc>Quaregnon Chemin n°2 Rue de Picquery</desc>
<link href="https://chemins.be/quaregnon/chemin/2"/><trkseg>
<trkpt lat="50.426055" lon="3.870669"><time>2026-05-02T20:44:45Z</time></trkpt>
<trkpt lat="50.426328" lon="3.872111"><time>2026-05-02T20:54:45Z</time></trkpt>
<trkpt lat="50.426541" lon="3.874920"><time>2026-05-02T21:04:45Z</time></trkpt>
</trkseg></trk>
<trk>
<name>hqgqg2</name>
<cmt>r</cmt>
<desc>Quaregnon Chemin n°2 Rue de Picquery</desc>
<link href="https://chemins.be/quaregnon/chemin/2"/><trkseg>
<trkpt lat="50.426541" lon="3.874920"><time>2026-05-02T21:04:45Z</time></trkpt>
<trkpt lat="50.426581" lon="3.875542"><time>2026-05-02T21:14:45Z</time></trkpt>
</trkseg></trk>
<trk>
<name>hqgqg2</name>
<cmt>v</cmt>
<desc>Quaregnon Chemin n°2 Rue de Picquery</desc>
<link href="https://chemins.be/quaregnon/chemin/2"/><trkseg>
<trkpt lat="50.426581" lon="3.875542"><time>2026-05-02T21:14:45Z</time></trkpt>
<trkpt lat="50.426529" lon="3.875703"><time>2026-05-02T21:24:45Z</time></trkpt>
</trkseg></trk>
<trk>
<name>hqgqg2</name>
<cmt>d</cmt>
<desc>Quaregnon Chemin n°2 Rue de Picquery</desc>
<link href="https://chemins.be/quaregnon/chemin/2"/><trkseg>
<trkpt lat="50.426529" lon="3.875703"><time>2026-05-02T21:24:45Z</time></trkpt>
<trkpt lat="50.426689" lon="3.876686"><time>2026-05-02T21:34:45Z</time></trkpt>
</trkseg>
</trk>
<trk>
<name>hqgqg24</name>
<cmt>v</cmt>
<desc>Quaregnon Chemin n°24 </desc>
<link href="https://chemins.be/quaregnon/chemin/24"/><trkseg>
<trkpt lat="50.453313" lon="3.853693"><time>2026-05-02T19:54:45Z</time></trkpt>
<trkpt lat="50.453409" lon="3.852484"><time>2026-05-02T20:04:45Z</time></trkpt>
<trkpt lat="50.453344" lon="3.850923"><time>2026-05-02T20:14:45Z</time></trkpt>
<trkpt lat="50.453471" lon="3.850729"><time>2026-05-02T20:24:45Z</time></trkpt>
<trkpt lat="50.453501" lon="3.849592"><time>2026-05-02T20:34:45Z</time></trkpt>
<trkpt lat="50.453310" lon="3.849109"><time>2026-05-02T20:44:45Z</time></trkpt>
</trkseg></trk>
<trk>
<name>hqgqg24</name>
<cmt>d</cmt>
<desc>Quaregnon Chemin n°24 </desc>
<link href="https://chemins.be/quaregnon/chemin/24"/><trkseg>
<trkpt lat="50.453310" lon="3.849109"><time>2026-05-02T20:44:45Z</time></trkpt>
<trkpt lat="50.453604" lon="3.848042"><time>2026-05-02T20:54:45Z</time></trkpt>
</trkseg>
</trk>
<trk>
<name>hqgqg26</name>
<cmt>s</cmt>
<desc>Quaregnon Sentier n°26 </desc>
<link href="https://chemins.be/quaregnon/sentier/26"/><trkseg>
<trkpt lat="50.452078" lon="3.868723"><time>2026-05-02T19:54:45Z</time></trkpt>
<trkpt lat="50.451821" lon="3.868690"><time>2026-05-02T20:04:45Z</time></trkpt>
</trkseg></trk>
<trk>
<name>hqgqg26</name>
<cmt>q</cmt>
<desc>Quaregnon Sentier n°26 </desc>
<link href="https://chemins.be/quaregnon/sentier/26"/><trkseg>
<trkpt lat="50.451821" lon="3.868690"><time>2026-05-02T20:04:45Z</time></trkpt>
<trkpt lat="50.449723" lon="3.868394"><time>2026-05-02T20:14:45Z</time></trkpt>
<trkpt lat="50.449701" lon="3.868402"><time>2026-05-02T20:24:45Z</time></trkpt>
</trkseg></trk>
<trk>
<name>hqgqg26</name>
<cmt>s</cmt>
<desc>Quaregnon Sentier n°26 </desc>
<link href="https://chemins.be/quaregnon/sentier/26"/><trkseg>
<trkpt lat="50.449701" lon="3.868402"><time>2026-05-02T20:24:45Z</time></trkpt>
<trkpt lat="50.449619" lon="3.867275"><time>2026-05-02T20:34:45Z</time></trkpt>
</trkseg>
</trk>
<trk>
<name>hqgqg27</name>
<cmt>s</cmt>
<desc>Quaregnon Sentier n°27 </desc>
<link href="https://chemins.be/quaregnon/sentier/27"/><trkseg>
<trkpt lat="50.447355" lon="3.860085"><time>2026-05-02T19:54:45Z</time></trkpt>
<trkpt lat="50.447512" lon="3.860460"><time>2026-05-02T20:04:45Z</time></trkpt>
<trkpt lat="50.446721" lon="3.864976"><time>2026-05-02T20:14:45Z</time></trkpt>
</trkseg>
</trk>
<trk>
<name>hqgqg28</name>
<cmt>r</cmt>
<desc>Quaregnon Sentier n°28 </desc>
<link href="https://chemins.be/quaregnon/sentier/28"/><trkseg>
<trkpt lat="50.444631" lon="3.861206"><time>2026-05-02T19:54:45Z</time></trkpt>
<trkpt lat="50.444764" lon="3.862799"><time>2026-05-02T20:04:45Z</time></trkpt>
<trkpt lat="50.444836" lon="3.864371"><time>2026-05-02T20:14:45Z</time></trkpt>
</trkseg>
</trk>
<trk>
<name>hqgqg30</name>
<cmt>v</cmt>
<desc>Quaregnon Chemin n°30 Rue de Lambrechies</desc>
<link href="https://chemins.be/quaregnon/chemin/30"/><trkseg>
<trkpt lat="50.423303" lon="3.876033"><time>2026-05-02T19:54:45Z</time></trkpt>
<trkpt lat="50.423554" lon="3.876150"><time>2026-05-02T20:04:45Z</time></trkpt>
</trkseg>
</trk>
<trk>
<name>hqgqg31</name>
<cmt>v</cmt>
<desc>Quaregnon Sentier n°31 </desc>
<link href="https://chemins.be/quaregnon/sentier/31"/><trkseg>
<trkpt lat="50.417216" lon="3.856789"><time>2026-05-02T19:54:45Z</time></trkpt>
<trkpt lat="50.417285" lon="3.855143"><time>2026-05-02T20:04:45Z</time></trkpt>
<trkpt lat="50.417805" lon="3.854003"><time>2026-05-02T20:14:45Z</time></trkpt>
<trkpt lat="50.417817" lon="3.852935"><time>2026-05-02T20:24:45Z</time></trkpt>
<trkpt lat="50.417817" lon="3.852935"><time>2026-05-02T20:34:45Z</time></trkpt>
<trkpt lat="50.417995" lon="3.852946"><time>2026-05-02T20:44:45Z</time></trkpt>
<trkpt lat="50.418215" lon="3.849982"><time>2026-05-02T20:54:45Z</time></trkpt>
</trkseg>
</trk>
<trk>
<name>hqgqg32</name>
<cmt>q</cmt>
<desc>Quaregnon Sentier n°32 </desc>
<link href="https://chemins.be/quaregnon/sentier/32"/><trkseg>
<trkpt lat="50.422845" lon="3.854713"><time>2026-05-02T19:54:45Z</time></trkpt>
<trkpt lat="50.421825" lon="3.854653"><time>2026-05-02T20:04:45Z</time></trkpt>
<trkpt lat="50.420915" lon="3.854103"><time>2026-05-02T20:14:45Z</time></trkpt>
<trkpt lat="50.420739" lon="3.853878"><time>2026-05-02T20:24:45Z</time></trkpt>
</trkseg></trk>
<trk>
<name>hqgqg32</name>
<cmt>s</cmt>
<desc>Quaregnon Sentier n°32 </desc>
<link href="https://chemins.be/quaregnon/sentier/32"/><trkseg>
<trkpt lat="50.420739" lon="3.853878"><time>2026-05-02T20:24:45Z</time></trkpt>
<trkpt lat="50.419855" lon="3.852813"><time>2026-05-02T20:34:45Z</time></trkpt>
</trkseg>
</trk>
<trk>
<name>hqgqg33</name>
<cmt>v</cmt>
<desc>Quaregnon Sentier n°33 Rue de Boïan / Rue de la Grosse Tiete - Rue de Boïan / Rue de la Grosse Tiete - Rue de la Jonction</desc>
<link href="https://chemins.be/quaregnon/sentier/33"/><trkseg>
<trkpt lat="50.422451" lon="3.852296"><time>2026-05-02T19:54:45Z</time></trkpt>
<trkpt lat="50.421605" lon="3.851953"><time>2026-05-02T20:04:45Z</time></trkpt>
</trkseg></trk>
<trk>
<name>hqgqg33</name>
<cmt>q</cmt>
<desc>Quaregnon Sentier n°33 Rue de Boïan / Rue de la Grosse Tiete - Rue de Boïan / Rue de la Grosse Tiete - Rue de la Jonction</desc>
<link href="https://chemins.be/quaregnon/sentier/33"/><trkseg>
<trkpt lat="50.421605" lon="3.851953"><time>2026-05-02T20:04:45Z</time></trkpt>
<trkpt lat="50.420717" lon="3.851538"><time>2026-05-02T20:14:45Z</time></trkpt>
<trkpt lat="50.420045" lon="3.851223"><time>2026-05-02T20:24:45Z</time></trkpt>
</trkseg></trk>
<trk>
<name>hqgqg33</name>
<cmt>v</cmt>
<desc>Quaregnon Sentier n°33 Rue de Boïan / Rue de la Grosse Tiete - Rue de Boïan / Rue de la Grosse Tiete - Rue de la Jonction</desc>
<link href="https://chemins.be/quaregnon/sentier/33"/><trkseg>
<trkpt lat="50.420045" lon="3.851223"><time>2026-05-02T20:24:45Z</time></trkpt>
<trkpt lat="50.419074" lon="3.850585"><time>2026-05-02T20:34:45Z</time></trkpt>
</trkseg></trk>
<trk>
<name>hqgqg33</name>
<cmt>r</cmt>
<desc>Quaregnon Sentier n°33 Rue de Boïan / Rue de la Grosse Tiete - Rue de Boïan / Rue de la Grosse Tiete - Rue de la Jonction</desc>
<link href="https://chemins.be/quaregnon/sentier/33"/><trkseg>
<trkpt lat="50.419074" lon="3.850585"><time>2026-05-02T20:34:45Z</time></trkpt>
<trkpt lat="50.418271" lon="3.849957"><time>2026-05-02T20:44:45Z</time></trkpt>
<trkpt lat="50.417898" lon="3.849657"><time>2026-05-02T20:54:45Z</time></trkpt>
</trkseg>
</trk>
<trk>
<name>hqgqg34</name>
<cmt>q</cmt>
<desc>Quaregnon Sentier n°34 </desc>
<link href="https://chemins.be/quaregnon/sentier/34"/><trkseg>
<trkpt lat="50.422795" lon="3.854743"><time>2026-05-02T19:54:45Z</time></trkpt>
<trkpt lat="50.422655" lon="3.856673"><time>2026-05-02T20:04:45Z</time></trkpt>
<trkpt lat="50.422835" lon="3.857933"><time>2026-05-02T20:14:45Z</time></trkpt>
<trkpt lat="50.422885" lon="3.858253"><time>2026-05-02T20:24:45Z</time></trkpt>
<trkpt lat="50.422775" lon="3.858343"><time>2026-05-02T20:34:45Z</time></trkpt>
<trkpt lat="50.422125" lon="3.858263"><time>2026-05-02T20:44:45Z</time></trkpt>
<trkpt lat="50.421872" lon="3.858578"><time>2026-05-02T20:54:45Z</time></trkpt>
<trkpt lat="50.420875" lon="3.860003"><time>2026-05-02T21:04:45Z</time></trkpt>
</trkseg></trk>
<trk>
<name>hqgqg34</name>
<cmt>s</cmt>
<desc>Quaregnon Sentier n°34 </desc>
<link href="https://chemins.be/quaregnon/sentier/34"/><trkseg>
<trkpt lat="50.420875" lon="3.860003"><time>2026-05-02T21:04:45Z</time></trkpt>
<trkpt lat="50.420515" lon="3.860873"><time>2026-05-02T21:14:45Z</time></trkpt>
</trkseg>
</trk>
<trk>
<name>hqgqg35</name>
<cmt>r</cmt>
<desc>Quaregnon Sentier n°35 Rue de Colfontaine</desc>
<link href="https://chemins.be/quaregnon/sentier/35"/><trkseg>
<trkpt lat="50.419511" lon="3.867813"><time>2026-05-02T19:54:45Z</time></trkpt>
<trkpt lat="50.418290" lon="3.867098"><time>2026-05-02T20:04:45Z</time></trkpt>
<trkpt lat="50.417280" lon="3.865549"><time>2026-05-02T20:14:45Z</time></trkpt>
<trkpt lat="50.416970" lon="3.864980"><time>2026-05-02T20:24:45Z</time></trkpt>
<trkpt lat="50.416638" lon="3.863893"><time>2026-05-02T20:34:45Z</time></trkpt>
</trkseg>
</trk>
<trk>
<name>hqgqg36</name>
<cmt>r</cmt>
<desc>Quaregnon Sentier n°36 Rue des Houllières / Rue du Rieu du Cœur</desc>
<link href="https://chemins.be/quaregnon/sentier/36"/><trkseg>
<trkpt lat="50.422561" lon="3.852377"><time>2026-05-02T19:54:45Z</time></trkpt>
<trkpt lat="50.423297" lon="3.855108"><time>2026-05-02T20:04:45Z</time></trkpt>
<trkpt lat="50.423418" lon="3.855556"><time>2026-05-02T20:14:45Z</time></trkpt>
<trkpt lat="50.423928" lon="3.858287"><time>2026-05-02T20:24:45Z</time></trkpt>
<trkpt lat="50.424065" lon="3.859594"><time>2026-05-02T20:34:45Z</time></trkpt>
<trkpt lat="50.424400" lon="3.862228"><time>2026-05-02T20:44:45Z</time></trkpt>
<trkpt lat="50.424924" lon="3.864792"><time>2026-05-02T20:54:45Z</time></trkpt>
</trkseg></trk>
<trk>
<name>hqgqg36</name>
<cmt>q</cmt>
<desc>Quaregnon Sentier n°36 Rue des Houllières / Rue du Rieu du Cœur</desc>
<link href="https://chemins.be/quaregnon/sentier/36"/><trkseg>
<trkpt lat="50.424924" lon="3.864792"><time>2026-05-02T20:54:45Z</time></trkpt>
<trkpt lat="50.425242" lon="3.866205"><time>2026-05-02T21:04:45Z</time></trkpt>
<trkpt lat="50.425267" lon="3.866636"><time>2026-05-02T21:14:45Z</time></trkpt>
<trkpt lat="50.425378" lon="3.866782"><time>2026-05-02T21:24:45Z</time></trkpt>
</trkseg></trk>
<trk>
<name>hqgqg36</name>
<cmt>v</cmt>
<desc>Quaregnon Sentier n°36 Rue des Houllières / Rue du Rieu du Cœur</desc>
<link href="https://chemins.be/quaregnon/sentier/36"/><trkseg>
<trkpt lat="50.425378" lon="3.866782"><time>2026-05-02T21:24:45Z</time></trkpt>
<trkpt lat="50.425319" lon="3.867072"><time>2026-05-02T21:34:45Z</time></trkpt>
<trkpt lat="50.425382" lon="3.867297"><time>2026-05-02T21:44:45Z</time></trkpt>
</trkseg></trk>
<trk>
<name>hqgqg36</name>
<cmt>q</cmt>
<desc>Quaregnon Sentier n°36 Rue des Houllières / Rue du Rieu du Cœur</desc>
<link href="https://chemins.be/quaregnon/sentier/36"/><trkseg>
<trkpt lat="50.425382" lon="3.867297"><time>2026-05-02T21:44:45Z</time></trkpt>
<trkpt lat="50.425621" lon="3.867649"><time>2026-05-02T21:54:45Z</time></trkpt>
<trkpt lat="50.425637" lon="3.867912"><time>2026-05-02T22:04:45Z</time></trkpt>
<trkpt lat="50.426184" lon="3.869272"><time>2026-05-02T22:14:45Z</time></trkpt>
</trkseg>
</trk>
<trk>
<name>hqgqg36bis</name>
<cmt>q</cmt>
<desc>Quaregnon Sentier n°36bis </desc>
<link href="https://chemins.be/quaregnon/sentier/36bis"/><trkseg>
<trkpt lat="50.426746" lon="3.877391"><time>2026-05-02T19:54:45Z</time></trkpt>
<trkpt lat="50.427778" lon="3.880502"><time>2026-05-02T20:04:45Z</time></trkpt>
</trkseg>
</trk>
<trk>
<name>hqgqg37</name>
<cmt>q</cmt>
<desc>Quaregnon Sentier n°37 </desc>
<link href="https://chemins.be/quaregnon/sentier/37"/><trkseg>
<trkpt lat="50.426873" lon="3.884073"><time>2026-05-02T19:54:45Z</time></trkpt>
<trkpt lat="50.426094" lon="3.883815"><time>2026-05-02T20:04:45Z</time></trkpt>
<trkpt lat="50.423374" lon="3.882013"><time>2026-05-02T20:14:45Z</time></trkpt>
</trkseg></trk>
<trk>
<name>hqgqg37</name>
<cmt>s</cmt>
<desc>Quaregnon Sentier n°37 </desc>
<link href="https://chemins.be/quaregnon/sentier/37"/><trkseg>
<trkpt lat="50.423374" lon="3.882013"><time>2026-05-02T20:14:45Z</time></trkpt>
<trkpt lat="50.422608" lon="3.881798"><time>2026-05-02T20:24:45Z</time></trkpt>
</trkseg></trk>
<trk>
<name>hqgqg37</name>
<cmt>q</cmt>
<desc>Quaregnon Sentier n°37 </desc>
<link href="https://chemins.be/quaregnon/sentier/37"/><trkseg>
<trkpt lat="50.422608" lon="3.881798"><time>2026-05-02T20:24:45Z</time></trkpt>
<trkpt lat="50.421235" lon="3.881364"><time>2026-05-02T20:34:45Z</time></trkpt>
</trkseg>
</trk>
<trk>
<name>hqgqg38</name>
<cmt>r</cmt>
<desc>Quaregnon Sentier n°38 Sentier du Bois / Rue du Campiau / Rue de la Grosse Cotte</desc>
<link href="https://chemins.be/quaregnon/sentier/38"/><trkseg>
<trkpt lat="50.437385" lon="3.880475"><time>2026-05-02T19:54:45Z</time></trkpt>
<trkpt lat="50.435781" lon="3.879436"><time>2026-05-02T20:04:45Z</time></trkpt>
</trkseg></trk>
<trk>
<name>hqgqg38</name>
<cmt>v</cmt>
<desc>Quaregnon Sentier n°38 Sentier du Bois / Rue du Campiau / Rue de la Grosse Cotte</desc>
<link href="https://chemins.be/quaregnon/sentier/38"/><trkseg>
<trkpt lat="50.435781" lon="3.879436"><time>2026-05-02T20:04:45Z</time></trkpt>
<trkpt lat="50.434627" lon="3.878674"><time>2026-05-02T20:14:45Z</time></trkpt>
<trkpt lat="50.433623" lon="3.877938"><time>2026-05-02T20:24:45Z</time></trkpt>
</trkseg></trk>
<trk>
<name>hqgqg38</name>
<cmt>r</cmt>
<desc>Quaregnon Sentier n°38 Sentier du Bois / Rue du Campiau / Rue de la Grosse Cotte</desc>
<link href="https://chemins.be/quaregnon/sentier/38"/><trkseg>
<trkpt lat="50.433623" lon="3.877938"><time>2026-05-02T20:24:45Z</time></trkpt>
<trkpt lat="50.432617" lon="3.876620"><time>2026-05-02T20:34:45Z</time></trkpt>
<trkpt lat="50.432207" lon="3.875855"><time>2026-05-02T20:44:45Z</time></trkpt>
<trkpt lat="50.432414" lon="3.874604"><time>2026-05-02T20:54:45Z</time></trkpt>
</trkseg></trk>
<trk>
<name>hqgqg38</name>
<cmt>v</cmt>
<desc>Quaregnon Sentier n°38 Sentier du Bois / Rue du Campiau / Rue de la Grosse Cotte</desc>
<link href="https://chemins.be/quaregnon/sentier/38"/><trkseg>
<trkpt lat="50.432414" lon="3.874604"><time>2026-05-02T20:54:45Z</time></trkpt>
<trkpt lat="50.432110" lon="3.874295"><time>2026-05-02T21:04:45Z</time></trkpt>
<trkpt lat="50.431991" lon="3.874243"><time>2026-05-02T21:14:45Z</time></trkpt>
<trkpt lat="50.432020" lon="3.873835"><time>2026-05-02T21:24:45Z</time></trkpt>
<trkpt lat="50.431721" lon="3.873245"><time>2026-05-02T21:34:45Z</time></trkpt>
</trkseg></trk>
<trk>
<name>hqgqg38</name>
<cmt>r</cmt>
<desc>Quaregnon Sentier n°38 Sentier du Bois / Rue du Campiau / Rue de la Grosse Cotte</desc>
<link href="https://chemins.be/quaregnon/sentier/38"/><trkseg>
<trkpt lat="50.431721" lon="3.873245"><time>2026-05-02T21:34:45Z</time></trkpt>
<trkpt lat="50.431357" lon="3.872491"><time>2026-05-02T21:44:45Z</time></trkpt>
</trkseg></trk>
<trk>
<name>hqgqg38</name>
<cmt>q</cmt>
<desc>Quaregnon Sentier n°38 Sentier du Bois / Rue du Campiau / Rue de la Grosse Cotte</desc>
<link href="https://chemins.be/quaregnon/sentier/38"/><trkseg>
<trkpt lat="50.431357" lon="3.872491"><time>2026-05-02T21:44:45Z</time></trkpt>
<trkpt lat="50.431076" lon="3.871523"><time>2026-05-02T21:54:45Z</time></trkpt>
<trkpt lat="50.426632" lon="3.867362"><time>2026-05-02T22:04:45Z</time></trkpt>
</trkseg>
</trk>
<trk>
<name>hqgqg39</name>
<cmt>d</cmt>
<desc>Quaregnon Sentier n°39 </desc>
<link href="https://chemins.be/quaregnon/sentier/39"/><trkseg>
<trkpt lat="50.426694" lon="3.847084"><time>2026-05-02T19:54:45Z</time></trkpt>
<trkpt lat="50.426744" lon="3.847432"><time>2026-05-02T20:04:45Z</time></trkpt>
<trkpt lat="50.426964" lon="3.847703"><time>2026-05-02T20:14:45Z</time></trkpt>
</trkseg></trk>
<trk>
<name>hqgqg39</name>
<cmt>q</cmt>
<desc>Quaregnon Sentier n°39 </desc>
<link href="https://chemins.be/quaregnon/sentier/39"/><trkseg>
<trkpt lat="50.426964" lon="3.847703"><time>2026-05-02T20:14:45Z</time></trkpt>
<trkpt lat="50.428105" lon="3.848682"><time>2026-05-02T20:24:45Z</time></trkpt>
<trkpt lat="50.428645" lon="3.850502"><time>2026-05-02T20:34:45Z</time></trkpt>
</trkseg></trk>
<trk>
<name>hqgqg39</name>
<cmt>r</cmt>
<desc>Quaregnon Sentier n°39 </desc>
<link href="https://chemins.be/quaregnon/sentier/39"/><trkseg>
<trkpt lat="50.428645" lon="3.850502"><time>2026-05-02T20:34:45Z</time></trkpt>
<trkpt lat="50.428645" lon="3.850502"><time>2026-05-02T20:44:45Z</time></trkpt>
<trkpt lat="50.428635" lon="3.850812"><time>2026-05-02T20:54:45Z</time></trkpt>
<trkpt lat="50.429185" lon="3.851632"><time>2026-05-02T21:04:45Z</time></trkpt>
</trkseg></trk>
<trk>
<name>hqgqg39</name>
<cmt>v</cmt>
<desc>Quaregnon Sentier n°39 </desc>
<link href="https://chemins.be/quaregnon/sentier/39"/><trkseg>
<trkpt lat="50.429185" lon="3.851632"><time>2026-05-02T21:04:45Z</time></trkpt>
<trkpt lat="50.429185" lon="3.851632"><time>2026-05-02T21:14:45Z</time></trkpt>
<trkpt lat="50.429215" lon="3.852262"><time>2026-05-02T21:24:45Z</time></trkpt>
<trkpt lat="50.429245" lon="3.852402"><time>2026-05-02T21:34:45Z</time></trkpt>
<trkpt lat="50.429365" lon="3.852812"><time>2026-05-02T21:44:45Z</time></trkpt>
<trkpt lat="50.429525" lon="3.853312"><time>2026-05-02T21:54:45Z</time></trkpt>
<trkpt lat="50.429655" lon="3.853822"><time>2026-05-02T22:04:45Z</time></trkpt>
<trkpt lat="50.429725" lon="3.854182"><time>2026-05-02T22:14:45Z</time></trkpt>
</trkseg></trk>
<trk>
<name>hqgqg39</name>
<cmt>s</cmt>
<desc>Quaregnon Sentier n°39 </desc>
<link href="https://chemins.be/quaregnon/sentier/39"/><trkseg>
<trkpt lat="50.429725" lon="3.854182"><time>2026-05-02T22:14:45Z</time></trkpt>
<trkpt lat="50.429725" lon="3.854182"><time>2026-05-02T22:24:45Z</time></trkpt>
<trkpt lat="50.429725" lon="3.854182"><time>2026-05-02T22:34:45Z</time></trkpt>
<trkpt lat="50.429725" lon="3.854182"><time>2026-05-02T22:44:45Z</time></trkpt>
<trkpt lat="50.430345" lon="3.855822"><time>2026-05-02T22:54:45Z</time></trkpt>
<trkpt lat="50.430655" lon="3.856933"><time>2026-05-02T23:04:45Z</time></trkpt>
<trkpt lat="50.431095" lon="3.857943"><time>2026-05-02T23:14:45Z</time></trkpt>
<trkpt lat="50.432185" lon="3.861053"><time>2026-05-02T23:24:45Z</time></trkpt>
</trkseg>
</trk>
<trk>
<name>hqgqg41</name>
<cmt>s</cmt>
<desc>Quaregnon Sentier n°41 </desc>
<link href="https://chemins.be/quaregnon/sentier/41"/><trkseg>
<trkpt lat="50.429723" lon="3.856439"><time>2026-05-02T19:54:45Z</time></trkpt>
<trkpt lat="50.431290" lon="3.854814"><time>2026-05-02T20:04:45Z</time></trkpt>
</trkseg></trk>
<trk>
<name>hqgqg41</name>
<cmt>q</cmt>
<desc>Quaregnon Sentier n°41 </desc>
<link href="https://chemins.be/quaregnon/sentier/41"/><trkseg>
<trkpt lat="50.431290" lon="3.854814"><time>2026-05-02T20:04:45Z</time></trkpt>
<trkpt lat="50.432705" lon="3.853774"><time>2026-05-02T20:14:45Z</time></trkpt>
<trkpt lat="50.434758" lon="3.853829"><time>2026-05-02T20:24:45Z</time></trkpt>
</trkseg></trk>
<trk>
<name>hqgqg41</name>
<cmt>s</cmt>
<desc>Quaregnon Sentier n°41 </desc>
<link href="https://chemins.be/quaregnon/sentier/41"/><trkseg>
<trkpt lat="50.434758" lon="3.853829"><time>2026-05-02T20:24:45Z</time></trkpt>
<trkpt lat="50.435572" lon="3.853850"><time>2026-05-02T20:34:45Z</time></trkpt>
<trkpt lat="50.436860" lon="3.854575"><time>2026-05-02T20:44:45Z</time></trkpt>
<trkpt lat="50.437668" lon="3.853164"><time>2026-05-02T20:54:45Z</time></trkpt>
</trkseg>
</trk>
<trk>
<name>hqgqg42</name>
<cmt>v</cmt>
<desc>Quaregnon Sentier n°42 Impasse Randour</desc>
<link href="https://chemins.be/quaregnon/sentier/42"/><trkseg>
<trkpt lat="50.436632" lon="3.864306"><time>2026-05-02T19:54:45Z</time></trkpt>
<trkpt lat="50.436859" lon="3.863196"><time>2026-05-02T20:04:45Z</time></trkpt>
</trkseg>
</trk>
<trk>
<name>hqgqg43</name>
<cmt>v</cmt>
<desc>Quaregnon Sentier n°43 Rue de Montignies</desc>
<link href="https://chemins.be/quaregnon/sentier/43"/><trkseg>
<trkpt lat="50.437985" lon="3.865383"><time>2026-05-02T19:54:45Z</time></trkpt>
<trkpt lat="50.438195" lon="3.864873"><time>2026-05-02T20:04:45Z</time></trkpt>
<trkpt lat="50.438431" lon="3.864532"><time>2026-05-02T20:14:45Z</time></trkpt>
</trkseg></trk>
<trk>
<name>hqgqg43</name>
<cmt>r</cmt>
<desc>Quaregnon Sentier n°43 Rue de Montignies</desc>
<link href="https://chemins.be/quaregnon/sentier/43"/><trkseg>
<trkpt lat="50.438431" lon="3.864532"><time>2026-05-02T20:14:45Z</time></trkpt>
<trkpt lat="50.438431" lon="3.864532"><time>2026-05-02T20:24:45Z</time></trkpt>
<trkpt lat="50.438645" lon="3.864353"><time>2026-05-02T20:34:45Z</time></trkpt>
<trkpt lat="50.439035" lon="3.864513"><time>2026-05-02T20:44:45Z</time></trkpt>
<trkpt lat="50.439528" lon="3.864667"><time>2026-05-02T20:54:45Z</time></trkpt>
<trkpt lat="50.439935" lon="3.864726"><time>2026-05-02T21:04:45Z</time></trkpt>
</trkseg>
</trk>
<trk>
<name>hqgqg44</name>
<cmt>r</cmt>
<desc>Quaregnon Sentier n°44 Ruelle Defuisseaux</desc>
<link href="https://chemins.be/quaregnon/sentier/44"/><trkseg>
<trkpt lat="50.434129" lon="3.863977"><time>2026-05-02T19:54:45Z</time></trkpt>
<trkpt lat="50.436197" lon="3.865478"><time>2026-05-02T20:04:45Z</time></trkpt>
<trkpt lat="50.437245" lon="3.867084"><time>2026-05-02T20:14:45Z</time></trkpt>
<trkpt lat="50.438138" lon="3.866939"><time>2026-05-02T20:24:45Z</time></trkpt>
<trkpt lat="50.439290" lon="3.867342"><time>2026-05-02T20:34:45Z</time></trkpt>
</trkseg></trk>
<trk>
<name>hqgqg44</name>
<cmt>v</cmt>
<desc>Quaregnon Sentier n°44 Ruelle Defuisseaux</desc>
<link href="https://chemins.be/quaregnon/sentier/44"/><trkseg>
<trkpt lat="50.439290" lon="3.867342"><time>2026-05-02T20:34:45Z</time></trkpt>
<trkpt lat="50.439442" lon="3.866552"><time>2026-05-02T20:44:45Z</time></trkpt>
<trkpt lat="50.439517" lon="3.866136"><time>2026-05-02T20:54:45Z</time></trkpt>
</trkseg>
</trk>
<trk>
<name>hqgqg45</name>
<cmt>s</cmt>
<desc>Quaregnon Sentier n°45 </desc>
<link href="https://chemins.be/quaregnon/sentier/45"/><trkseg>
<trkpt lat="50.440855" lon="3.869156"><time>2026-05-02T19:54:45Z</time></trkpt>
<trkpt lat="50.439772" lon="3.867751"><time>2026-05-02T20:04:45Z</time></trkpt>
<trkpt lat="50.439015" lon="3.868973"><time>2026-05-02T20:14:45Z</time></trkpt>
</trkseg>
</trk>
<trk>
<name>hqgqg46</name>
<cmt>r</cmt>
<desc>Quaregnon Sentier n°46 Rue Mandart</desc>
<link href="https://chemins.be/quaregnon/sentier/46"/><trkseg>
<trkpt lat="50.437115" lon="3.866953"><time>2026-05-02T19:54:45Z</time></trkpt>
<trkpt lat="50.437135" lon="3.867163"><time>2026-05-02T20:04:45Z</time></trkpt>
<trkpt lat="50.436855" lon="3.869473"><time>2026-05-02T20:14:45Z</time></trkpt>
</trkseg></trk>
<trk>
<name>hqgqg46</name>
<cmt>d</cmt>
<desc>Quaregnon Sentier n°46 Rue Mandart</desc>
<link href="https://chemins.be/quaregnon/sentier/46"/><trkseg>
<trkpt lat="50.436855" lon="3.869473"><time>2026-05-02T20:14:45Z</time></trkpt>
<trkpt lat="50.436855" lon="3.869473"><time>2026-05-02T20:24:45Z</time></trkpt>
<trkpt lat="50.436735" lon="3.871123"><time>2026-05-02T20:34:45Z</time></trkpt>
</trkseg></trk>
<trk>
<name>hqgqg46</name>
<cmt>q</cmt>
<desc>Quaregnon Sentier n°46 Rue Mandart</desc>
<link href="https://chemins.be/quaregnon/sentier/46"/><trkseg>
<trkpt lat="50.436735" lon="3.871123"><time>2026-05-02T20:34:45Z</time></trkpt>
<trkpt lat="50.436735" lon="3.871123"><time>2026-05-02T20:44:45Z</time></trkpt>
<trkpt lat="50.436655" lon="3.871943"><time>2026-05-02T20:54:45Z</time></trkpt>
</trkseg></trk>
<trk>
<name>hqgqg46</name>
<cmt>r</cmt>
<desc>Quaregnon Sentier n°46 Rue Mandart</desc>
<link href="https://chemins.be/quaregnon/sentier/46"/><trkseg>
<trkpt lat="50.436655" lon="3.871943"><time>2026-05-02T20:54:45Z</time></trkpt>
<trkpt lat="50.436655" lon="3.871943"><time>2026-05-02T21:04:45Z</time></trkpt>
<trkpt lat="50.436515" lon="3.872873"><time>2026-05-02T21:14:45Z</time></trkpt>
<trkpt lat="50.436795" lon="3.875043"><time>2026-05-02T21:24:45Z</time></trkpt>
</trkseg></trk>
<trk>
<name>hqgqg46</name>
<cmt>q</cmt>
<desc>Quaregnon Sentier n°46 Rue Mandart</desc>
<link href="https://chemins.be/quaregnon/sentier/46"/><trkseg>
<trkpt lat="50.436795" lon="3.875043"><time>2026-05-02T21:24:45Z</time></trkpt>
<trkpt lat="50.436795" lon="3.875043"><time>2026-05-02T21:34:45Z</time></trkpt>
<trkpt lat="50.436825" lon="3.875693"><time>2026-05-02T21:44:45Z</time></trkpt>
<trkpt lat="50.436855" lon="3.875963"><time>2026-05-02T21:54:45Z</time></trkpt>
</trkseg></trk>
<trk>
<name>hqgqg46</name>
<cmt>r</cmt>
<desc>Quaregnon Sentier n°46 Rue Mandart</desc>
<link href="https://chemins.be/quaregnon/sentier/46"/><trkseg>
<trkpt lat="50.436855" lon="3.875963"><time>2026-05-02T21:54:45Z</time></trkpt>
<trkpt lat="50.436855" lon="3.875963"><time>2026-05-02T22:04:45Z</time></trkpt>
<trkpt lat="50.436855" lon="3.875963"><time>2026-05-02T22:14:45Z</time></trkpt>
<trkpt lat="50.436855" lon="3.875963"><time>2026-05-02T22:24:45Z</time></trkpt>
<trkpt lat="50.436855" lon="3.875963"><time>2026-05-02T22:34:45Z</time></trkpt>
<trkpt lat="50.436935" lon="3.876943"><time>2026-05-02T22:44:45Z</time></trkpt>
</trkseg></trk>
<trk>
<name>hqgqg46</name>
<cmt>b</cmt>
<desc>Quaregnon Sentier n°46 Rue Mandart</desc>
<link href="https://chemins.be/quaregnon/sentier/46"/><trkseg>
<trkpt lat="50.436935" lon="3.876943"><time>2026-05-02T22:44:45Z</time></trkpt>
<trkpt lat="50.436935" lon="3.876943"><time>2026-05-02T22:54:45Z</time></trkpt>
<trkpt lat="50.436935" lon="3.876943"><time>2026-05-02T23:04:45Z</time></trkpt>
<trkpt lat="50.436935" lon="3.876943"><time>2026-05-02T23:14:45Z</time></trkpt>
<trkpt lat="50.436935" lon="3.876943"><time>2026-05-02T23:24:45Z</time></trkpt>
<trkpt lat="50.436993" lon="3.877411"><time>2026-05-02T23:34:45Z</time></trkpt>
<trkpt lat="50.437335" lon="3.880013"><time>2026-05-02T23:44:45Z</time></trkpt>
<trkpt lat="50.437405" lon="3.880153"><time>2026-05-02T23:54:45Z</time></trkpt>
</trkseg>
</trk>
<trk>
<name>hqgqg47</name>
<cmt>s</cmt>
<desc>Quaregnon Sentier n°47 </desc>
<link href="https://chemins.be/quaregnon/sentier/47"/><trkseg>
<trkpt lat="50.438425" lon="3.862213"><time>2026-05-02T19:54:45Z</time></trkpt>
<trkpt lat="50.438715" lon="3.862063"><time>2026-05-02T20:04:45Z</time></trkpt>
<trkpt lat="50.438905" lon="3.861333"><time>2026-05-02T20:14:45Z</time></trkpt>
<trkpt lat="50.439541" lon="3.860506"><time>2026-05-02T20:24:45Z</time></trkpt>
<trkpt lat="50.439702" lon="3.859953"><time>2026-05-02T20:34:45Z</time></trkpt>
</trkseg>
</trk>
<trk>
<name>hqgqg48</name>
<cmt>s</cmt>
<desc>Quaregnon Sentier n°48 </desc>
<link href="https://chemins.be/quaregnon/sentier/48"/><trkseg>
<trkpt lat="50.440415" lon="3.860681"><time>2026-05-02T19:54:45Z</time></trkpt>
<trkpt lat="50.442745" lon="3.863675"><time>2026-05-02T20:04:45Z</time></trkpt>
</trkseg>
</trk>
<trk>
<name>hqgqg49</name>
<cmt>s</cmt>
<desc>Quaregnon Sentier n°49 </desc>
<link href="https://chemins.be/quaregnon/sentier/49"/><trkseg>
<trkpt lat="50.439037" lon="3.862775"><time>2026-05-02T19:54:45Z</time></trkpt>
<trkpt lat="50.439891" lon="3.864626"><time>2026-05-02T20:04:45Z</time></trkpt>
</trkseg>
</trk>
<trk>
<name>hqgqg5</name>
<cmt>r</cmt>
<desc>Quaregnon Chemin n°5 Rue Louis Piérart</desc>
<link href="https://chemins.be/quaregnon/chemin/5"/><trkseg>
<trkpt lat="50.426605" lon="3.878903"><time>2026-05-02T19:54:45Z</time></trkpt>
<trkpt lat="50.423389" lon="3.881349"><time>2026-05-02T20:04:45Z</time></trkpt>
</trkseg></trk>
<trk>
<name>hqgqg5</name>
<cmt>s</cmt>
<desc>Quaregnon Chemin n°5 Rue Louis Piérart</desc>
<link href="https://chemins.be/quaregnon/chemin/5"/><trkseg>
<trkpt lat="50.423389" lon="3.881349"><time>2026-05-02T20:04:45Z</time></trkpt>
<trkpt lat="50.422713" lon="3.881896"><time>2026-05-02T20:14:45Z</time></trkpt>
</trkseg></trk>
<trk>
<name>hqgqg5</name>
<cmt>v</cmt>
<desc>Quaregnon Chemin n°5 Rue Louis Piérart</desc>
<link href="https://chemins.be/quaregnon/chemin/5"/><trkseg>
<trkpt lat="50.422713" lon="3.881896"><time>2026-05-02T20:14:45Z</time></trkpt>
<trkpt lat="50.421625" lon="3.882674"><time>2026-05-02T20:24:45Z</time></trkpt>
</trkseg>
</trk>
<trk>
<name>hqgqg51</name>
<cmt>q</cmt>
<desc>Quaregnon Sentier n°51 Place Nicolas Jenart / Sentier du Coq</desc>
<link href="https://chemins.be/quaregnon/sentier/51"/><trkseg>
<trkpt lat="50.442211" lon="3.866367"><time>2026-05-02T19:54:45Z</time></trkpt>
<trkpt lat="50.442210" lon="3.867219"><time>2026-05-02T20:04:45Z</time></trkpt>
</trkseg></trk>
<trk>
<name>hqgqg51</name>
<cmt>r</cmt>
<desc>Quaregnon Sentier n°51 Place Nicolas Jenart / Sentier du Coq</desc>
<link href="https://chemins.be/quaregnon/sentier/51"/><trkseg>
<trkpt lat="50.442210" lon="3.867219"><time>2026-05-02T20:04:45Z</time></trkpt>
<trkpt lat="50.442257" lon="3.867974"><time>2026-05-02T20:14:45Z</time></trkpt>
</trkseg></trk>
<trk>
<name>hqgqg51</name>
<cmt>s</cmt>
<desc>Quaregnon Sentier n°51 Place Nicolas Jenart / Sentier du Coq</desc>
<link href="https://chemins.be/quaregnon/sentier/51"/><trkseg>
<trkpt lat="50.442257" lon="3.867974"><time>2026-05-02T20:14:45Z</time></trkpt>
<trkpt lat="50.441894" lon="3.868944"><time>2026-05-02T20:24:45Z</time></trkpt>
<trkpt lat="50.441152" lon="3.870926"><time>2026-05-02T20:34:45Z</time></trkpt>
</trkseg></trk>
<trk>
<name>hqgqg51</name>
<cmt>r</cmt>
<desc>Quaregnon Sentier n°51 Place Nicolas Jenart / Sentier du Coq</desc>
<link href="https://chemins.be/quaregnon/sentier/51"/><trkseg>
<trkpt lat="50.441152" lon="3.870926"><time>2026-05-02T20:34:45Z</time></trkpt>
<trkpt lat="50.441132" lon="3.872675"><time>2026-05-02T20:44:45Z</time></trkpt>
</trkseg></trk>
<trk>
<name>hqgqg51</name>
<cmt>v</cmt>
<desc>Quaregnon Sentier n°51 Place Nicolas Jenart / Sentier du Coq</desc>
<link href="https://chemins.be/quaregnon/sentier/51"/><trkseg>
<trkpt lat="50.441132" lon="3.872675"><time>2026-05-02T20:44:45Z</time></trkpt>
<trkpt lat="50.438806" lon="3.876224"><time>2026-05-02T20:54:45Z</time></trkpt>
<trkpt lat="50.438396" lon="3.877058"><time>2026-05-02T21:04:45Z</time></trkpt>
<trkpt lat="50.437395" lon="3.880489"><time>2026-05-02T21:14:45Z</time></trkpt>
</trkseg>
</trk>
<trk>
<name>hqgqg52</name>
<cmt>s</cmt>
<desc>Quaregnon Sentier n°52 </desc>
<link href="https://chemins.be/quaregnon/sentier/52"/><trkseg>
<trkpt lat="50.442519" lon="3.866401"><time>2026-05-02T19:54:45Z</time></trkpt>
<trkpt lat="50.443046" lon="3.866938"><time>2026-05-02T20:04:45Z</time></trkpt>
<trkpt lat="50.443934" lon="3.868021"><time>2026-05-02T20:14:45Z</time></trkpt>
<trkpt lat="50.446038" lon="3.872635"><time>2026-05-02T20:24:45Z</time></trkpt>
</trkseg>
</trk>
<trk>
<name>hqgqg53</name>
<cmt>v</cmt>
<desc>Quaregnon Sentier n°53 Rue des Frères</desc>
<link href="https://chemins.be/quaregnon/sentier/53"/><trkseg>
<trkpt lat="50.443420" lon="3.865070"><time>2026-05-02T19:54:45Z</time></trkpt>
<trkpt lat="50.443463" lon="3.865374"><time>2026-05-02T20:04:45Z</time></trkpt>
<trkpt lat="50.443431" lon="3.865420"><time>2026-05-02T20:14:45Z</time></trkpt>
<trkpt lat="50.443575" lon="3.866116"><time>2026-05-02T20:24:45Z</time></trkpt>
<trkpt lat="50.443639" lon="3.866428"><time>2026-05-02T20:34:45Z</time></trkpt>
<trkpt lat="50.443654" lon="3.866503"><time>2026-05-02T20:44:45Z</time></trkpt>
<trkpt lat="50.443666" lon="3.866559"><time>2026-05-02T20:54:45Z</time></trkpt>
<trkpt lat="50.443727" lon="3.866871"><time>2026-05-02T21:04:45Z</time></trkpt>
<trkpt lat="50.443953" lon="3.866762"><time>2026-05-02T21:14:45Z</time></trkpt>
<trkpt lat="50.444024" lon="3.867143"><time>2026-05-02T21:24:45Z</time></trkpt>
<trkpt lat="50.444818" lon="3.866743"><time>2026-05-02T21:34:45Z</time></trkpt>
</trkseg>
</trk>
<trk>
<name>hqgqg53bis</name>
<cmt>v</cmt>
<desc>Quaregnon Sentier n°53bis Place de la Charte</desc>
<link href="https://chemins.be/quaregnon/sentier/53bis"/><trkseg>
<trkpt lat="50.443657" lon="3.866521"><time>2026-05-02T19:54:45Z</time></trkpt>
<trkpt lat="50.443463" lon="3.866579"><time>2026-05-02T20:04:45Z</time></trkpt>
</trkseg></trk>
<trk>
<name>hqgqg53bis</name>
<cmt>r</cmt>
<desc>Quaregnon Sentier n°53bis Place de la Charte</desc>
<link href="https://chemins.be/quaregnon/sentier/53bis"/><trkseg>
<trkpt lat="50.443463" lon="3.866579"><time>2026-05-02T20:04:45Z</time></trkpt>
<trkpt lat="50.443044" lon="3.866761"><time>2026-05-02T20:14:45Z</time></trkpt>
</trkseg>
</trk>
<trk>
<name>hqgqg54</name>
<cmt>v</cmt>
<desc>Quaregnon Sentier n°54 </desc>
<link href="https://chemins.be/quaregnon/sentier/54"/><trkseg>
<trkpt lat="50.443856" lon="3.861981"><time>2026-05-02T19:54:45Z</time></trkpt>
<trkpt lat="50.444024" lon="3.861874"><time>2026-05-02T20:04:45Z</time></trkpt>
<trkpt lat="50.444177" lon="3.861670"><time>2026-05-02T20:14:45Z</time></trkpt>
</trkseg>
</trk>
<trk>
<name>hqgqg55</name>
<cmt>r</cmt>
<desc>Quaregnon Sentier n°55 </desc>
<link href="https://chemins.be/quaregnon/sentier/55"/><trkseg>
<trkpt lat="50.442773" lon="3.863703"><time>2026-05-02T19:54:45Z</time></trkpt>
<trkpt lat="50.441680" lon="3.864031"><time>2026-05-02T20:04:45Z</time></trkpt>
</trkseg>
</trk>
<trk>
<name>hqgqg56</name>
<cmt>s</cmt>
<desc>Quaregnon Sentier n°56 </desc>
<link href="https://chemins.be/quaregnon/sentier/56"/><trkseg>
<trkpt lat="50.442693" lon="3.856051"><time>2026-05-02T19:54:45Z</time></trkpt>
<trkpt lat="50.442974" lon="3.854527"><time>2026-05-02T20:04:45Z</time></trkpt>
</trkseg></trk>
<trk>
<name>hqgqg56</name>
<cmt>v</cmt>
<desc>Quaregnon Sentier n°56 </desc>
<link href="https://chemins.be/quaregnon/sentier/56"/><trkseg>
<trkpt lat="50.442974" lon="3.854527"><time>2026-05-02T20:04:45Z</time></trkpt>
<trkpt lat="50.443495" lon="3.852565"><time>2026-05-02T20:14:45Z</time></trkpt>
</trkseg>
</trk>
<trk>
<name>hqgqg57</name>
<cmt>v</cmt>
<desc>Quaregnon Sentier n°57 </desc>
<link href="https://chemins.be/quaregnon/sentier/57"/><trkseg>
<trkpt lat="50.448155" lon="3.854052"><time>2026-05-02T19:54:45Z</time></trkpt>
<trkpt lat="50.447977" lon="3.854214"><time>2026-05-02T20:04:45Z</time></trkpt>
</trkseg></trk>
<trk>
<name>hqgqg57</name>
<cmt>d</cmt>
<desc>Quaregnon Sentier n°57 </desc>
<link href="https://chemins.be/quaregnon/sentier/57"/><trkseg>
<trkpt lat="50.447977" lon="3.854214"><time>2026-05-02T20:04:45Z</time></trkpt>
<trkpt lat="50.447335" lon="3.854652"><time>2026-05-02T20:14:45Z</time></trkpt>
<trkpt lat="50.446745" lon="3.854432"><time>2026-05-02T20:24:45Z</time></trkpt>
<trkpt lat="50.446025" lon="3.854782"><time>2026-05-02T20:34:45Z</time></trkpt>
<trkpt lat="50.444895" lon="3.856102"><time>2026-05-02T20:44:45Z</time></trkpt>
</trkseg>
</trk>
<trk>
<name>hqgqg59</name>
<cmt>v</cmt>
<desc>Quaregnon Sentier n°59 </desc>
<link href="https://chemins.be/quaregnon/sentier/59"/><trkseg>
<trkpt lat="50.450625" lon="3.852572"><time>2026-05-02T19:54:45Z</time></trkpt>
<trkpt lat="50.450955" lon="3.852852"><time>2026-05-02T20:04:45Z</time></trkpt>
<trkpt lat="50.451516" lon="3.852992"><time>2026-05-02T20:14:45Z</time></trkpt>
</trkseg></trk>
<trk>
<name>hqgqg59</name>
<cmt>q</cmt>
<desc>Quaregnon Sentier n°59 </desc>
<link href="https://chemins.be/quaregnon/sentier/59"/><trkseg>
<trkpt lat="50.451516" lon="3.852992"><time>2026-05-02T20:14:45Z</time></trkpt>
<trkpt lat="50.451506" lon="3.852982"><time>2026-05-02T20:24:45Z</time></trkpt>
<trkpt lat="50.452300" lon="3.853149"><time>2026-05-02T20:34:45Z</time></trkpt>
<trkpt lat="50.452566" lon="3.853412"><time>2026-05-02T20:44:45Z</time></trkpt>
</trkseg>
</trk>
<trk>
<name>hqgqg6</name>
<cmt>v</cmt>
<desc>Quaregnon Chemin n°6 Rue de Fontignies - Rue Achille Delattre</desc>
<link href="https://chemins.be/quaregnon/chemin/6"/><trkseg>
<trkpt lat="50.426715" lon="3.847042"><time>2026-05-02T19:54:45Z</time></trkpt>
<trkpt lat="50.426885" lon="3.847102"><time>2026-05-02T20:04:45Z</time></trkpt>
</trkseg></trk>
<trk>
<name>hqgqg6</name>
<cmt>s</cmt>
<desc>Quaregnon Chemin n°6 Rue de Fontignies - Rue Achille Delattre</desc>
<link href="https://chemins.be/quaregnon/chemin/6"/><trkseg>
<trkpt lat="50.426885" lon="3.847102"><time>2026-05-02T20:04:45Z</time></trkpt>
<trkpt lat="50.426885" lon="3.847112"><time>2026-05-02T20:14:45Z</time></trkpt>
<trkpt lat="50.427067" lon="3.847159"><time>2026-05-02T20:24:45Z</time></trkpt>
</trkseg></trk>
<trk>
<name>hqgqg6</name>
<cmt>d</cmt>
<desc>Quaregnon Chemin n°6 Rue de Fontignies - Rue Achille Delattre</desc>
<link href="https://chemins.be/quaregnon/chemin/6"/><trkseg>
<trkpt lat="50.427067" lon="3.847159"><time>2026-05-02T20:24:45Z</time></trkpt>
<trkpt lat="50.427255" lon="3.847182"><time>2026-05-02T20:34:45Z</time></trkpt>
</trkseg></trk>
<trk>
<name>hqgqg6</name>
<cmt>r</cmt>
<desc>Quaregnon Chemin n°6 Rue de Fontignies - Rue Achille Delattre</desc>
<link href="https://chemins.be/quaregnon/chemin/6"/><trkseg>
<trkpt lat="50.427255" lon="3.847182"><time>2026-05-02T20:34:45Z</time></trkpt>
<trkpt lat="50.427255" lon="3.847182"><time>2026-05-02T20:44:45Z</time></trkpt>
<trkpt lat="50.427665" lon="3.847292"><time>2026-05-02T20:54:45Z</time></trkpt>
</trkseg>
</trk>
<trk>
<name>hqgqg60</name>
<cmt>q</cmt>
<desc>Quaregnon Sentier n°60 Rue du Coron</desc>
<link href="https://chemins.be/quaregnon/sentier/60"/><trkseg>
<trkpt lat="50.446813" lon="3.872379"><time>2026-05-02T19:54:45Z</time></trkpt>
<trkpt lat="50.446423" lon="3.869247"><time>2026-05-02T20:04:45Z</time></trkpt>
<trkpt lat="50.446285" lon="3.868163"><time>2026-05-02T20:14:45Z</time></trkpt>
</trkseg></trk>
<trk>
<name>hqgqg60</name>
<cmt>r</cmt>
<desc>Quaregnon Sentier n°60 Rue du Coron</desc>
<link href="https://chemins.be/quaregnon/sentier/60"/><trkseg>
<trkpt lat="50.446285" lon="3.868163"><time>2026-05-02T20:14:45Z</time></trkpt>
<trkpt lat="50.445845" lon="3.866993"><time>2026-05-02T20:24:45Z</time></trkpt>
</trkseg></trk>
<trk>
<name>hqgqg60</name>
<cmt>s</cmt>
<desc>Quaregnon Sentier n°60 Rue du Coron</desc>
<link href="https://chemins.be/quaregnon/sentier/60"/><trkseg>
<trkpt lat="50.445845" lon="3.866993"><time>2026-05-02T20:24:45Z</time></trkpt>
<trkpt lat="50.446715" lon="3.865013"><time>2026-05-02T20:34:45Z</time></trkpt>
</trkseg>
</trk>
<trk>
<name>hqgqg61</name>
<cmt>s</cmt>
<desc>Quaregnon Sentier n°61 </desc>
<link href="https://chemins.be/quaregnon/sentier/61"/><trkseg>
<trkpt lat="50.446751" lon="3.864885"><time>2026-05-02T19:54:45Z</time></trkpt>
<trkpt lat="50.448548" lon="3.864810"><time>2026-05-02T20:04:45Z</time></trkpt>
<trkpt lat="50.449457" lon="3.865668"><time>2026-05-02T20:14:45Z</time></trkpt>
<trkpt lat="50.449600" lon="3.867310"><time>2026-05-02T20:24:45Z</time></trkpt>
</trkseg>
</trk>
<trk>
<name>hqgqg62</name>
<cmt>r</cmt>
<desc>Quaregnon Sentier n°62 Rue du Danube</desc>
<link href="https://chemins.be/quaregnon/sentier/62"/><trkseg>
<trkpt lat="50.442821" lon="3.856958"><time>2026-05-02T19:54:45Z</time></trkpt>
<trkpt lat="50.444630" lon="3.857458"><time>2026-05-02T20:04:45Z</time></trkpt>
</trkseg></trk>
<trk>
<name>hqgqg62</name>
<cmt>v</cmt>
<desc>Quaregnon Sentier n°62 Rue du Danube</desc>
<link href="https://chemins.be/quaregnon/sentier/62"/><trkseg>
<trkpt lat="50.444630" lon="3.857458"><time>2026-05-02T20:04:45Z</time></trkpt>
<trkpt lat="50.444954" lon="3.857498"><time>2026-05-02T20:14:45Z</time></trkpt>
<trkpt lat="50.446175" lon="3.857542"><time>2026-05-02T20:24:45Z</time></trkpt>
<trkpt lat="50.446835" lon="3.857602"><time>2026-05-02T20:34:45Z</time></trkpt>
<trkpt lat="50.447425" lon="3.857752"><time>2026-05-02T20:44:45Z</time></trkpt>
</trkseg>
</trk>
<trk>
<name>hqgqg62bis</name>
<cmt>s</cmt>
<desc>Quaregnon Sentier n°62bis </desc>
<link href="https://chemins.be/quaregnon/sentier/62bis"/><trkseg>
<trkpt lat="50.446928" lon="3.858636"><time>2026-05-02T19:54:45Z</time></trkpt>
<trkpt lat="50.446376" lon="3.858003"><time>2026-05-02T20:04:45Z</time></trkpt>
</trkseg>
</trk>
<trk>
<name>hqgqg63</name>
<cmt>r</cmt>
<desc>Quaregnon Sentier n°63 Rue du Coq</desc>
<link href="https://chemins.be/quaregnon/sentier/63"/><trkseg>
<trkpt lat="50.440015" lon="3.864792"><time>2026-05-02T19:54:45Z</time></trkpt>
<trkpt lat="50.440312" lon="3.863424"><time>2026-05-02T20:04:45Z</time></trkpt>
</trkseg>
</trk>
<trk>
<name>hqgqg64</name>
<cmt>q</cmt>
<desc>Quaregnon Sentier n°64 Rue de l'Égalité</desc>
<link href="https://chemins.be/quaregnon/sentier/64"/><trkseg>
<trkpt lat="50.440833" lon="3.862485"><time>2026-05-02T19:54:45Z</time></trkpt>
<trkpt lat="50.440484" lon="3.861020"><time>2026-05-02T20:04:45Z</time></trkpt>
</trkseg>
</trk>
<trk>
<name>hqgqg65</name>
<cmt>v</cmt>
<desc>Quaregnon Chemin n°65 </desc>
<link href="https://chemins.be/quaregnon/chemin/65"/><trkseg>
<trkpt lat="50.453235" lon="3.844432"><time>2026-05-02T19:54:45Z</time></trkpt>
<trkpt lat="50.453208" lon="3.845580"><time>2026-05-02T20:04:45Z</time></trkpt>
<trkpt lat="50.453119" lon="3.845901"><time>2026-05-02T20:14:45Z</time></trkpt>
<trkpt lat="50.453276" lon="3.846406"><time>2026-05-02T20:24:45Z</time></trkpt>
</trkseg></trk>
<trk>
<name>hqgqg65</name>
<cmt>q</cmt>
<desc>Quaregnon Chemin n°65 </desc>
<link href="https://chemins.be/quaregnon/chemin/65"/><trkseg>
<trkpt lat="50.453276" lon="3.846406"><time>2026-05-02T20:24:45Z</time></trkpt>
<trkpt lat="50.453645" lon="3.847704"><time>2026-05-02T20:34:45Z</time></trkpt>
<trkpt lat="50.453618" lon="3.848004"><time>2026-05-02T20:44:45Z</time></trkpt>
<trkpt lat="50.454451" lon="3.848530"><time>2026-05-02T20:54:45Z</time></trkpt>
<trkpt lat="50.454642" lon="3.847800"><time>2026-05-02T21:04:45Z</time></trkpt>
</trkseg>
</trk>
<trk>
<name>hqgqg66</name>
<cmt>q</cmt>
<desc>Quaregnon Sentier n°66 </desc>
<link href="https://chemins.be/quaregnon/sentier/66"/><trkseg>
<trkpt lat="50.454693" lon="3.851813"><time>2026-05-02T19:54:45Z</time></trkpt>
<trkpt lat="50.454977" lon="3.851400"><time>2026-05-02T20:04:45Z</time></trkpt>
<trkpt lat="50.455110" lon="3.851395"><time>2026-05-02T20:14:45Z</time></trkpt>
<trkpt lat="50.455442" lon="3.849614"><time>2026-05-02T20:24:45Z</time></trkpt>
<trkpt lat="50.455114" lon="3.848155"><time>2026-05-02T20:34:45Z</time></trkpt>
<trkpt lat="50.454677" lon="3.847768"><time>2026-05-02T20:44:45Z</time></trkpt>
</trkseg>
</trk>
<trk>
<name>hqgqg67</name>
<cmt>s</cmt>
<desc>Quaregnon Sentier n°67 </desc>
<link href="https://chemins.be/quaregnon/sentier/67"/><trkseg>
<trkpt lat="50.455267" lon="3.857993"><time>2026-05-02T19:54:45Z</time></trkpt>
<trkpt lat="50.455415" lon="3.859877"><time>2026-05-02T20:04:45Z</time></trkpt>
<trkpt lat="50.455254" lon="3.860903"><time>2026-05-02T20:14:45Z</time></trkpt>
</trkseg></trk>
<trk>
<name>hqgqg67</name>
<cmt>v</cmt>
<desc>Quaregnon Sentier n°67 </desc>
<link href="https://chemins.be/quaregnon/sentier/67"/><trkseg>
<trkpt lat="50.455254" lon="3.860903"><time>2026-05-02T20:14:45Z</time></trkpt>
<trkpt lat="50.455658" lon="3.863083"><time>2026-05-02T20:24:45Z</time></trkpt>
</trkseg></trk>
<trk>
<name>hqgqg67</name>
<cmt>q</cmt>
<desc>Quaregnon Sentier n°67 </desc>
<link href="https://chemins.be/quaregnon/sentier/67"/><trkseg>
<trkpt lat="50.455658" lon="3.863083"><time>2026-05-02T20:24:45Z</time></trkpt>
<trkpt lat="50.454849" lon="3.865177"><time>2026-05-02T20:34:45Z</time></trkpt>
<trkpt lat="50.454745" lon="3.868052"><time>2026-05-02T20:44:45Z</time></trkpt>
<trkpt lat="50.453985" lon="3.869914"><time>2026-05-02T20:54:45Z</time></trkpt>
<trkpt lat="50.453781" lon="3.870411"><time>2026-05-02T21:04:45Z</time></trkpt>
<trkpt lat="50.453060" lon="3.870387"><time>2026-05-02T21:14:45Z</time></trkpt>
</trkseg></trk>
<trk>
<name>hqgqg67</name>
<cmt>s</cmt>
<desc>Quaregnon Sentier n°67 </desc>
<link href="https://chemins.be/quaregnon/sentier/67"/><trkseg>
<trkpt lat="50.453060" lon="3.870387"><time>2026-05-02T21:14:45Z</time></trkpt>
<trkpt lat="50.452734" lon="3.870376"><time>2026-05-02T21:24:45Z</time></trkpt>
</trkseg></trk>
<trk>
<name>hqgqg67</name>
<cmt>q</cmt>
<desc>Quaregnon Sentier n°67 </desc>
<link href="https://chemins.be/quaregnon/sentier/67"/><trkseg>
<trkpt lat="50.452734" lon="3.870376"><time>2026-05-02T21:24:45Z</time></trkpt>
<trkpt lat="50.452588" lon="3.868695"><time>2026-05-02T21:34:45Z</time></trkpt>
<trkpt lat="50.452046" lon="3.868745"><time>2026-05-02T21:44:45Z</time></trkpt>
</trkseg>
</trk>
<trk>
<name>hqgqg68</name>
<cmt>v</cmt>
<desc>Quaregnon Sentier n°68 </desc>
<link href="https://chemins.be/quaregnon/sentier/68"/><trkseg>
<trkpt lat="50.437860" lon="3.852587"><time>2026-05-02T19:54:45Z</time></trkpt>
<trkpt lat="50.440945" lon="3.854036"><time>2026-05-02T20:04:45Z</time></trkpt>
<trkpt lat="50.442294" lon="3.854551"><time>2026-05-02T20:14:45Z</time></trkpt>
<trkpt lat="50.442985" lon="3.854642"><time>2026-05-02T20:24:45Z</time></trkpt>
</trkseg></trk>
<trk>
<name>hqgqg68</name>
<cmt>d</cmt>
<desc>Quaregnon Sentier n°68 </desc>
<link href="https://chemins.be/quaregnon/sentier/68"/><trkseg>
<trkpt lat="50.442985" lon="3.854642"><time>2026-05-02T20:24:45Z</time></trkpt>
<trkpt lat="50.444810" lon="3.855128"><time>2026-05-02T20:34:45Z</time></trkpt>
<trkpt lat="50.445625" lon="3.855372"><time>2026-05-02T20:44:45Z</time></trkpt>
</trkseg>
</trk>
<trk>
<name>hqgqg69</name>
<cmt>b</cmt>
<desc>Quaregnon Sentier n°69 </desc>
<link href="https://chemins.be/quaregnon/sentier/69"/><trkseg>
<trkpt lat="50.444595" lon="3.860042"><time>2026-05-02T19:54:45Z</time></trkpt>
<trkpt lat="50.445050" lon="3.860005"><time>2026-05-02T20:04:45Z</time></trkpt>
</trkseg></trk>
<trk>
<name>hqgqg69</name>
<cmt>s</cmt>
<desc>Quaregnon Sentier n°69 </desc>
<link href="https://chemins.be/quaregnon/sentier/69"/><trkseg>
<trkpt lat="50.445050" lon="3.860005"><time>2026-05-02T20:04:45Z</time></trkpt>
<trkpt lat="50.445725" lon="3.859892"><time>2026-05-02T20:14:45Z</time></trkpt>
</trkseg>
</trk>
<trk>
<name>hqgqg7</name>
<cmt>v</cmt>
<desc>Quaregnon Chemin n°7 Chemin du Trou au sable</desc>
<link href="https://chemins.be/quaregnon/chemin/7"/><trkseg>
<trkpt lat="50.428635" lon="3.850502"><time>2026-05-02T19:54:45Z</time></trkpt>
<trkpt lat="50.426885" lon="3.849482"><time>2026-05-02T20:04:45Z</time></trkpt>
</trkseg></trk>
<trk>
<name>hqgqg7</name>
<cmt>s</cmt>
<desc>Quaregnon Chemin n°7 Chemin du Trou au sable</desc>
<link href="https://chemins.be/quaregnon/chemin/7"/><trkseg>
<trkpt lat="50.426885" lon="3.849482"><time>2026-05-02T20:04:45Z</time></trkpt>
<trkpt lat="50.426885" lon="3.849482"><time>2026-05-02T20:14:45Z</time></trkpt>
<trkpt lat="50.426885" lon="3.849482"><time>2026-05-02T20:24:45Z</time></trkpt>
<trkpt lat="50.426656" lon="3.849360"><time>2026-05-02T20:34:45Z</time></trkpt>
</trkseg></trk>
<trk>
<name>hqgqg7</name>
<cmt>d</cmt>
<desc>Quaregnon Chemin n°7 Chemin du Trou au sable</desc>
<link href="https://chemins.be/quaregnon/chemin/7"/><trkseg>
<trkpt lat="50.426656" lon="3.849360"><time>2026-05-02T20:34:45Z</time></trkpt>
<trkpt lat="50.426656" lon="3.849360"><time>2026-05-02T20:44:45Z</time></trkpt>
<trkpt lat="50.426515" lon="3.849282"><time>2026-05-02T20:54:45Z</time></trkpt>
</trkseg>
</trk>
<trk>
<name>hqgqg70</name>
<cmt>v</cmt>
<desc>Quaregnon Sentier n°70 </desc>
<link href="https://chemins.be/quaregnon/sentier/70"/><trkseg>
<trkpt lat="50.444629" lon="3.861317"><time>2026-05-02T19:54:45Z</time></trkpt>
<trkpt lat="50.445514" lon="3.861033"><time>2026-05-02T20:04:45Z</time></trkpt>
</trkseg>
</trk>
<trk>
<name>hqgqg72</name>
<cmt>b</cmt>
<desc>Quaregnon Sentier n°72 </desc>
<link href="https://chemins.be/quaregnon/sentier/72"/><trkseg>
<trkpt lat="50.441997" lon="3.865038"><time>2026-05-02T19:54:45Z</time></trkpt>
<trkpt lat="50.441983" lon="3.866060"><time>2026-05-02T20:04:45Z</time></trkpt>
</trkseg>
</trk>
<trk>
<name>hqgqg73</name>
<cmt>s</cmt>
<desc>Quaregnon Sentier n°73 </desc>
<link href="https://chemins.be/quaregnon/sentier/73"/><trkseg>
<trkpt lat="50.435566" lon="3.869861"><time>2026-05-02T19:54:45Z</time></trkpt>
<trkpt lat="50.436755" lon="3.867457"><time>2026-05-02T20:04:45Z</time></trkpt>
<trkpt lat="50.437161" lon="3.867057"><time>2026-05-02T20:14:45Z</time></trkpt>
</trkseg>
</trk>
<trk>
<name>hqgqg74</name>
<cmt>s</cmt>
<desc>Quaregnon Sentier n°74 </desc>
<link href="https://chemins.be/quaregnon/sentier/74"/><trkseg>
<trkpt lat="50.424005" lon="3.859523"><time>2026-05-02T19:54:45Z</time></trkpt>
<trkpt lat="50.422835" lon="3.857993"><time>2026-05-02T20:04:45Z</time></trkpt>
</trkseg></trk>
<trk>
<name>hqgqg74</name>
<cmt>q</cmt>
<desc>Quaregnon Sentier n°74 </desc>
<link href="https://chemins.be/quaregnon/sentier/74"/><trkseg>
<trkpt lat="50.422835" lon="3.857993"><time>2026-05-02T20:04:45Z</time></trkpt>
<trkpt lat="50.422245" lon="3.857783"><time>2026-05-02T20:14:45Z</time></trkpt>
<trkpt lat="50.420887" lon="3.856800"><time>2026-05-02T20:24:45Z</time></trkpt>
<trkpt lat="50.420436" lon="3.856853"><time>2026-05-02T20:34:45Z</time></trkpt>
<trkpt lat="50.420087" lon="3.857089"><time>2026-05-02T20:44:45Z</time></trkpt>
<trkpt lat="50.419465" lon="3.856907"><time>2026-05-02T20:54:45Z</time></trkpt>
</trkseg>
</trk>
<trk>
<name>hqgqg9</name>
<cmt>b</cmt>
<desc>Quaregnon Chemin n°9 </desc>
<link href="https://chemins.be/quaregnon/chemin/9"/><trkseg>
<trkpt lat="50.423855" lon="3.875893"><time>2026-05-02T19:54:45Z</time></trkpt>
<trkpt lat="50.423549" lon="3.875263"><time>2026-05-02T20:04:45Z</time></trkpt>
<trkpt lat="50.423327" lon="3.874871"><time>2026-05-02T20:14:45Z</time></trkpt>
<trkpt lat="50.423077" lon="3.874356"><time>2026-05-02T20:24:45Z</time></trkpt>
</trkseg></trk>
<trk>
<name>hqgqg9</name>
<cmt>q</cmt>
<desc>Quaregnon Chemin n°9 </desc>
<link href="https://chemins.be/quaregnon/chemin/9"/><trkseg>
<trkpt lat="50.423077" lon="3.874356"><time>2026-05-02T20:24:45Z</time></trkpt>
<trkpt lat="50.422905" lon="3.874043"><time>2026-05-02T20:34:45Z</time></trkpt>
</trkseg>
</trk>
<trk>
<name>hqgqgi1</name>
<cmt>r</cmt>
<desc>Quaregnon Sentier n°i1 Sentier du Coq</desc>
<link href="https://chemins.be/quaregnon/sentier/i1"/><trkseg>
<trkpt lat="50.436585" lon="3.875933"><time>2026-05-02T19:54:45Z</time></trkpt>
<trkpt lat="50.437085" lon="3.875953"><time>2026-05-02T20:04:45Z</time></trkpt>
</trkseg></trk>
<trk>
<name>hqgqgi1</name>
<cmt>v</cmt>
<desc>Quaregnon Sentier n°i1 Sentier du Coq</desc>
<link href="https://chemins.be/quaregnon/sentier/i1"/><trkseg>
<trkpt lat="50.437085" lon="3.875953"><time>2026-05-02T20:04:45Z</time></trkpt>
<trkpt lat="50.437085" lon="3.875953"><time>2026-05-02T20:14:45Z</time></trkpt>
<trkpt lat="50.437155" lon="3.875983"><time>2026-05-02T20:24:45Z</time></trkpt>
<trkpt lat="50.437295" lon="3.876023"><time>2026-05-02T20:34:45Z</time></trkpt>
<trkpt lat="50.437747" lon="3.876040"><time>2026-05-02T20:44:45Z</time></trkpt>
<trkpt lat="50.437825" lon="3.876043"><time>2026-05-02T20:54:45Z</time></trkpt>
<trkpt lat="50.437985" lon="3.876123"><time>2026-05-02T21:04:45Z</time></trkpt>
<trkpt lat="50.438785" lon="3.876253"><time>2026-05-02T21:14:45Z</time></trkpt>
<trkpt lat="50.440025" lon="3.876553"><time>2026-05-02T21:24:45Z</time></trkpt>
</trkseg>
</trk>
<trk>
<name>hqgqgi10</name>
<cmt>v</cmt>
<desc>Quaregnon Sentier n°i10 </desc>
<link href="https://chemins.be/quaregnon/sentier/i10"/><trkseg>
<trkpt lat="50.435134" lon="3.867256"><time>2026-05-02T19:54:45Z</time></trkpt>
<trkpt lat="50.435564" lon="3.867439"><time>2026-05-02T20:04:45Z</time></trkpt>
</trkseg>
</trk>
<trk>
<name>hqgqgi11</name>
<cmt>v</cmt>
<desc>Quaregnon Chemin n°i11 </desc>
<link href="https://chemins.be/quaregnon/chemin/i11"/><trkseg>
<trkpt lat="50.426695" lon="3.850352"><time>2026-05-02T19:54:45Z</time></trkpt>
<trkpt lat="50.426595" lon="3.850212"><time>2026-05-02T20:04:45Z</time></trkpt>
<trkpt lat="50.426656" lon="3.849371"><time>2026-05-02T20:14:45Z</time></trkpt>
<trkpt lat="50.426685" lon="3.849022"><time>2026-05-02T20:24:45Z</time></trkpt>
</trkseg>
</trk>
<trk>
<name>hqgqgi12</name>
<cmt>v</cmt>
<desc>Quaregnon Sentier n°i12 </desc>
<link href="https://chemins.be/quaregnon/sentier/i12"/><trkseg>
<trkpt lat="50.451421" lon="3.852935"><time>2026-05-02T19:54:45Z</time></trkpt>
<trkpt lat="50.452480" lon="3.852602"><time>2026-05-02T20:04:45Z</time></trkpt>
</trkseg>
</trk>
<trk>
<name>hqgqgi13</name>
<cmt>r</cmt>
<desc>Quaregnon Chemin n°i13 </desc>
<link href="https://chemins.be/quaregnon/chemin/i13"/><trkseg>
<trkpt lat="50.422845" lon="3.874773"><time>2026-05-02T19:54:45Z</time></trkpt>
<trkpt lat="50.422991" lon="3.874815"><time>2026-05-02T20:04:45Z</time></trkpt>
</trkseg></trk>
<trk>
<name>hqgqgi13</name>
<cmt>q</cmt>
<desc>Quaregnon Chemin n°i13 </desc>
<link href="https://chemins.be/quaregnon/chemin/i13"/><trkseg>
<trkpt lat="50.422991" lon="3.874815"><time>2026-05-02T20:04:45Z</time></trkpt>
<trkpt lat="50.423345" lon="3.874873"><time>2026-05-02T20:14:45Z</time></trkpt>
</trkseg>
</trk>
<trk>
<name>hqgqgi14</name>
<cmt>v</cmt>
<desc>Quaregnon Sentier n°i14 </desc>
<link href="https://chemins.be/quaregnon/sentier/i14"/><trkseg>
<trkpt lat="50.424727" lon="3.873877"><time>2026-05-02T19:54:45Z</time></trkpt>
<trkpt lat="50.425438" lon="3.872278"><time>2026-05-02T20:04:45Z</time></trkpt>
<trkpt lat="50.425404" lon="3.872042"><time>2026-05-02T20:14:45Z</time></trkpt>
<trkpt lat="50.425636" lon="3.871581"><time>2026-05-02T20:24:45Z</time></trkpt>
<trkpt lat="50.425581" lon="3.871356"><time>2026-05-02T20:34:45Z</time></trkpt>
<trkpt lat="50.426061" lon="3.870150"><time>2026-05-02T20:44:45Z</time></trkpt>
</trkseg>
</trk>
<trk>
<name>hqgqgi15</name>
<cmt>v</cmt>
<desc>Quaregnon Sentier n°i15 </desc>
<link href="https://chemins.be/quaregnon/sentier/i15"/><trkseg>
<trkpt lat="50.453269" lon="3.849088"><time>2026-05-02T19:54:45Z</time></trkpt>
<trkpt lat="50.453269" lon="3.846599"><time>2026-05-02T20:04:45Z</time></trkpt>
</trkseg>
</trk>
<trk>
<name>hqgqgi16</name>
<cmt>v</cmt>
<desc>Quaregnon Sentier n°i16 </desc>
<link href="https://chemins.be/quaregnon/sentier/i16"/><trkseg>
<trkpt lat="50.421419" lon="3.853111"><time>2026-05-02T19:54:45Z</time></trkpt>
<trkpt lat="50.421569" lon="3.851974"><time>2026-05-02T20:04:45Z</time></trkpt>
</trkseg>
</trk>
<trk>
<name>hqgqgi17</name>
<cmt>v</cmt>
<desc>Quaregnon Sentier n°i17 </desc>
<link href="https://chemins.be/quaregnon/sentier/i17"/><trkseg>
<trkpt lat="50.417160" lon="3.870714"><time>2026-05-02T19:54:45Z</time></trkpt>
<trkpt lat="50.417230" lon="3.870874"><time>2026-05-02T20:04:45Z</time></trkpt>
<trkpt lat="50.417257" lon="3.870909"><time>2026-05-02T20:14:45Z</time></trkpt>
<trkpt lat="50.417869" lon="3.871271"><time>2026-05-02T20:24:45Z</time></trkpt>
<trkpt lat="50.417986" lon="3.871419"><time>2026-05-02T20:34:45Z</time></trkpt>
<trkpt lat="50.418000" lon="3.871806"><time>2026-05-02T20:44:45Z</time></trkpt>
<trkpt lat="50.417694" lon="3.872012"><time>2026-05-02T20:54:45Z</time></trkpt>
<trkpt lat="50.417505" lon="3.871783"><time>2026-05-02T21:04:45Z</time></trkpt>
<trkpt lat="50.417287" lon="3.871551"><time>2026-05-02T21:14:45Z</time></trkpt>
<trkpt lat="50.417054" lon="3.871635"><time>2026-05-02T21:24:45Z</time></trkpt>
<trkpt lat="50.415987" lon="3.872416"><time>2026-05-02T21:34:45Z</time></trkpt>
<trkpt lat="50.415741" lon="3.873394"><time>2026-05-02T21:44:45Z</time></trkpt>
<trkpt lat="50.415052" lon="3.873360"><time>2026-05-02T21:54:45Z</time></trkpt>
</trkseg>
</trk>
<trk>
<name>hqgqgi18</name>
<cmt>v</cmt>
<desc>Quaregnon Sentier n°i18 </desc>
<link href="https://chemins.be/quaregnon/sentier/i18"/><trkseg>
<trkpt lat="50.415563" lon="3.867407"><time>2026-05-02T19:54:45Z</time></trkpt>
<trkpt lat="50.415487" lon="3.867934"><time>2026-05-02T20:04:45Z</time></trkpt>
<trkpt lat="50.415450" lon="3.868087"><time>2026-05-02T20:14:45Z</time></trkpt>
<trkpt lat="50.415340" lon="3.868398"><time>2026-05-02T20:24:45Z</time></trkpt>
<trkpt lat="50.415084" lon="3.868956"><time>2026-05-02T20:34:45Z</time></trkpt>
<trkpt lat="50.414918" lon="3.869305"><time>2026-05-02T20:44:45Z</time></trkpt>
<trkpt lat="50.414874" lon="3.869426"><time>2026-05-02T20:54:45Z</time></trkpt>
<trkpt lat="50.414869" lon="3.869480"><time>2026-05-02T21:04:45Z</time></trkpt>
<trkpt lat="50.414895" lon="3.869512"><time>2026-05-02T21:14:45Z</time></trkpt>
<trkpt lat="50.414929" lon="3.869524"><time>2026-05-02T21:24:45Z</time></trkpt>
<trkpt lat="50.415002" lon="3.869485"><time>2026-05-02T21:34:45Z</time></trkpt>
<trkpt lat="50.415116" lon="3.869469"><time>2026-05-02T21:44:45Z</time></trkpt>
<trkpt lat="50.415285" lon="3.869380"><time>2026-05-02T21:54:45Z</time></trkpt>
<trkpt lat="50.415434" lon="3.869034"><time>2026-05-02T22:04:45Z</time></trkpt>
<trkpt lat="50.415533" lon="3.868889"><time>2026-05-02T22:14:45Z</time></trkpt>
<trkpt lat="50.415633" lon="3.868734"><time>2026-05-02T22:24:45Z</time></trkpt>
<trkpt lat="50.415694" lon="3.868570"><time>2026-05-02T22:34:45Z</time></trkpt>
<trkpt lat="50.415718" lon="3.868473"><time>2026-05-02T22:44:45Z</time></trkpt>
<trkpt lat="50.415762" lon="3.868422"><time>2026-05-02T22:54:45Z</time></trkpt>
<trkpt lat="50.415834" lon="3.868401"><time>2026-05-02T23:04:45Z</time></trkpt>
<trkpt lat="50.415899" lon="3.868436"><time>2026-05-02T23:14:45Z</time></trkpt>
<trkpt lat="50.415933" lon="3.868471"><time>2026-05-02T23:24:45Z</time></trkpt>
<trkpt lat="50.415961" lon="3.868530"><time>2026-05-02T23:34:45Z</time></trkpt>
<trkpt lat="50.415961" lon="3.868575"><time>2026-05-02T23:44:45Z</time></trkpt>
<trkpt lat="50.415959" lon="3.868618"><time>2026-05-02T23:54:45Z</time></trkpt>
<trkpt lat="50.415940" lon="3.868664"><time>2026-05-03T00:04:45Z</time></trkpt>
<trkpt lat="50.415916" lon="3.868728"><time>2026-05-03T00:14:45Z</time></trkpt>
<trkpt lat="50.415880" lon="3.868779"><time>2026-05-03T00:24:45Z</time></trkpt>
<trkpt lat="50.415874" lon="3.868836"><time>2026-05-03T00:34:45Z</time></trkpt>
<trkpt lat="50.415856" lon="3.868991"><time>2026-05-03T00:44:45Z</time></trkpt>
<trkpt lat="50.415872" lon="3.869031"><time>2026-05-03T00:54:45Z</time></trkpt>
<trkpt lat="50.415882" lon="3.869055"><time>2026-05-03T01:04:45Z</time></trkpt>
<trkpt lat="50.415894" lon="3.869082"><time>2026-05-03T01:14:45Z</time></trkpt>
<trkpt lat="50.415911" lon="3.869128"><time>2026-05-03T01:24:45Z</time></trkpt>
<trkpt lat="50.415901" lon="3.869182"><time>2026-05-03T01:34:45Z</time></trkpt>
<trkpt lat="50.415855" lon="3.869514"><time>2026-05-03T01:44:45Z</time></trkpt>
<trkpt lat="50.415862" lon="3.869576"><time>2026-05-03T01:54:45Z</time></trkpt>
<trkpt lat="50.415851" lon="3.869635"><time>2026-05-03T02:04:45Z</time></trkpt>
<trkpt lat="50.415833" lon="3.869683"><time>2026-05-03T02:14:45Z</time></trkpt>
<trkpt lat="50.415807" lon="3.869710"><time>2026-05-03T02:24:45Z</time></trkpt>
<trkpt lat="50.415768" lon="3.869745"><time>2026-05-03T02:34:45Z</time></trkpt>
<trkpt lat="50.415747" lon="3.869734"><time>2026-05-03T02:44:45Z</time></trkpt>
<trkpt lat="50.415694" lon="3.869723"><time>2026-05-03T02:54:45Z</time></trkpt>
<trkpt lat="50.415663" lon="3.869697"><time>2026-05-03T03:04:45Z</time></trkpt>
<trkpt lat="50.415422" lon="3.869506"><time>2026-05-03T03:14:45Z</time></trkpt>
<trkpt lat="50.415361" lon="3.869474"><time>2026-05-03T03:24:45Z</time></trkpt>
<trkpt lat="50.415325" lon="3.869452"><time>2026-05-03T03:34:45Z</time></trkpt>
</trkseg>
</trk>
<trk>
<name>hqgqgi19</name>
<cmt>v</cmt>
<desc>Quaregnon Sentier n°i19 </desc>
<link href="https://chemins.be/quaregnon/sentier/i19"/><trkseg>
<trkpt lat="50.415156" lon="3.870491"><time>2026-05-02T19:54:45Z</time></trkpt>
<trkpt lat="50.415166" lon="3.870436"><time>2026-05-02T20:04:45Z</time></trkpt>
<trkpt lat="50.415192" lon="3.870415"><time>2026-05-02T20:14:45Z</time></trkpt>
<trkpt lat="50.415274" lon="3.870337"><time>2026-05-02T20:24:45Z</time></trkpt>
<trkpt lat="50.415501" lon="3.870235"><time>2026-05-02T20:34:45Z</time></trkpt>
<trkpt lat="50.415635" lon="3.870189"><time>2026-05-02T20:44:45Z</time></trkpt>
<trkpt lat="50.415732" lon="3.870133"><time>2026-05-02T20:54:45Z</time></trkpt>
<trkpt lat="50.415797" lon="3.870028"><time>2026-05-02T21:04:45Z</time></trkpt>
<trkpt lat="50.415850" lon="3.869908"><time>2026-05-02T21:14:45Z</time></trkpt>
<trkpt lat="50.415881" lon="3.869774"><time>2026-05-02T21:24:45Z</time></trkpt>
<trkpt lat="50.415898" lon="3.869639"><time>2026-05-02T21:34:45Z</time></trkpt>
<trkpt lat="50.415825" lon="3.869586"><time>2026-05-02T21:44:45Z</time></trkpt>
</trkseg>
</trk>
<trk>
<name>hqgqgi2</name>
<cmt>v</cmt>
<desc>Quaregnon Sentier n°i2 </desc>
<link href="https://chemins.be/quaregnon/sentier/i2"/><trkseg>
<trkpt lat="50.434696" lon="3.875429"><time>2026-05-02T19:54:45Z</time></trkpt>
<trkpt lat="50.432787" lon="3.874421"><time>2026-05-02T20:04:45Z</time></trkpt>
<trkpt lat="50.432691" lon="3.874735"><time>2026-05-02T20:14:45Z</time></trkpt>
<trkpt lat="50.432432" lon="3.874578"><time>2026-05-02T20:24:45Z</time></trkpt>
</trkseg>
</trk>
<trk>
<name>hqgqgi20</name>
<cmt>v</cmt>
<desc>Quaregnon Sentier n°i20 </desc>
<link href="https://chemins.be/quaregnon/sentier/i20"/><trkseg>
<trkpt lat="50.431254" lon="3.854740"><time>2026-05-02T19:54:45Z</time></trkpt>
<trkpt lat="50.431285" lon="3.854668"><time>2026-05-02T20:04:45Z</time></trkpt>
<trkpt lat="50.431409" lon="3.852475"><time>2026-05-02T20:14:45Z</time></trkpt>
<trkpt lat="50.431395" lon="3.852325"><time>2026-05-02T20:24:45Z</time></trkpt>
<trkpt lat="50.431379" lon="3.852252"><time>2026-05-02T20:34:45Z</time></trkpt>
<trkpt lat="50.431356" lon="3.852224"><time>2026-05-02T20:44:45Z</time></trkpt>
<trkpt lat="50.431303" lon="3.852185"><time>2026-05-02T20:54:45Z</time></trkpt>
</trkseg>
</trk>
<trk>
<name>hqgqgi21</name>
<cmt>v</cmt>
<desc>Quaregnon Sentier n°i21 </desc>
<link href="https://chemins.be/quaregnon/sentier/i21"/><trkseg>
<trkpt lat="50.424050" lon="3.868665"><time>2026-05-02T19:54:45Z</time></trkpt>
<trkpt lat="50.424069" lon="3.868721"><time>2026-05-02T20:04:45Z</time></trkpt>
<trkpt lat="50.424216" lon="3.868659"><time>2026-05-02T20:14:45Z</time></trkpt>
<trkpt lat="50.424261" lon="3.868680"><time>2026-05-02T20:24:45Z</time></trkpt>
<trkpt lat="50.424271" lon="3.868729"><time>2026-05-02T20:34:45Z</time></trkpt>
<trkpt lat="50.424261" lon="3.868808"><time>2026-05-02T20:44:45Z</time></trkpt>
<trkpt lat="50.424241" lon="3.868911"><time>2026-05-02T20:54:45Z</time></trkpt>
<trkpt lat="50.424193" lon="3.869156"><time>2026-05-02T21:04:45Z</time></trkpt>
<trkpt lat="50.424139" lon="3.869442"><time>2026-05-02T21:14:45Z</time></trkpt>
<trkpt lat="50.424017" lon="3.870027"><time>2026-05-02T21:24:45Z</time></trkpt>
<trkpt lat="50.424020" lon="3.870078"><time>2026-05-02T21:34:45Z</time></trkpt>
<trkpt lat="50.424044" lon="3.870113"><time>2026-05-02T21:44:45Z</time></trkpt>
<trkpt lat="50.424066" lon="3.870088"><time>2026-05-02T21:54:45Z</time></trkpt>
<trkpt lat="50.424147" lon="3.869873"><time>2026-05-02T22:04:45Z</time></trkpt>
<trkpt lat="50.424254" lon="3.869641"><time>2026-05-02T22:14:45Z</time></trkpt>
<trkpt lat="50.424349" lon="3.869464"><time>2026-05-02T22:24:45Z</time></trkpt>
<trkpt lat="50.424420" lon="3.869384"><time>2026-05-02T22:34:45Z</time></trkpt>
<trkpt lat="50.424446" lon="3.869393"><time>2026-05-02T22:44:45Z</time></trkpt>
<trkpt lat="50.424455" lon="3.869442"><time>2026-05-02T22:54:45Z</time></trkpt>
<trkpt lat="50.424457" lon="3.869506"><time>2026-05-02T23:04:45Z</time></trkpt>
<trkpt lat="50.424367" lon="3.869744"><time>2026-05-02T23:14:45Z</time></trkpt>
<trkpt lat="50.424349" lon="3.869863"><time>2026-05-02T23:24:45Z</time></trkpt>
<trkpt lat="50.424353" lon="3.869986"><time>2026-05-02T23:34:45Z</time></trkpt>
<trkpt lat="50.424364" lon="3.870071"><time>2026-05-02T23:44:45Z</time></trkpt>
<trkpt lat="50.424407" lon="3.870104"><time>2026-05-02T23:54:45Z</time></trkpt>
<trkpt lat="50.424458" lon="3.870054"><time>2026-05-03T00:04:45Z</time></trkpt>
<trkpt lat="50.424484" lon="3.870004"><time>2026-05-03T00:14:45Z</time></trkpt>
<trkpt lat="50.424504" lon="3.869966"><time>2026-05-03T00:24:45Z</time></trkpt>
<trkpt lat="50.424568" lon="3.869841"><time>2026-05-03T00:34:45Z</time></trkpt>
<trkpt lat="50.424627" lon="3.869751"><time>2026-05-03T00:44:45Z</time></trkpt>
<trkpt lat="50.424702" lon="3.869627"><time>2026-05-03T00:54:45Z</time></trkpt>
<trkpt lat="50.424769" lon="3.869571"><time>2026-05-03T01:04:45Z</time></trkpt>
<trkpt lat="50.424815" lon="3.869574"><time>2026-05-03T01:14:45Z</time></trkpt>
<trkpt lat="50.424845" lon="3.869626"><time>2026-05-03T01:24:45Z</time></trkpt>
<trkpt lat="50.424882" lon="3.869837"><time>2026-05-03T01:34:45Z</time></trkpt>
<trkpt lat="50.424832" lon="3.870038"><time>2026-05-03T01:44:45Z</time></trkpt>
<trkpt lat="50.424775" lon="3.870277"><time>2026-05-03T01:54:45Z</time></trkpt>
<trkpt lat="50.424809" lon="3.870421"><time>2026-05-03T02:04:45Z</time></trkpt>
<trkpt lat="50.424917" lon="3.870424"><time>2026-05-03T02:14:45Z</time></trkpt>
<trkpt lat="50.425124" lon="3.870410"><time>2026-05-03T02:24:45Z</time></trkpt>
<trkpt lat="50.425259" lon="3.870405"><time>2026-05-03T02:34:45Z</time></trkpt>
<trkpt lat="50.425332" lon="3.870424"><time>2026-05-03T02:44:45Z</time></trkpt>
<trkpt lat="50.425431" lon="3.870443"><time>2026-05-03T02:54:45Z</time></trkpt>
<trkpt lat="50.425488" lon="3.870453"><time>2026-05-03T03:04:45Z</time></trkpt>
<trkpt lat="50.425563" lon="3.870502"><time>2026-05-03T03:14:45Z</time></trkpt>
<trkpt lat="50.425600" lon="3.870539"><time>2026-05-03T03:24:45Z</time></trkpt>
<trkpt lat="50.425630" lon="3.870587"><time>2026-05-03T03:34:45Z</time></trkpt>
<trkpt lat="50.425665" lon="3.870641"><time>2026-05-03T03:44:45Z</time></trkpt>
<trkpt lat="50.425695" lon="3.870698"><time>2026-05-03T03:54:45Z</time></trkpt>
<trkpt lat="50.425731" lon="3.870773"><time>2026-05-03T04:04:45Z</time></trkpt>
<trkpt lat="50.425749" lon="3.870826"><time>2026-05-03T04:14:45Z</time></trkpt>
<trkpt lat="50.425765" lon="3.870889"><time>2026-05-03T04:24:45Z</time></trkpt>
</trkseg>
</trk>
<trk>
<name>hqgqgi22</name>
<cmt>v</cmt>
<desc>Quaregnon Chemin n°i22 </desc>
<link href="https://chemins.be/quaregnon/chemin/i22"/><trkseg>
<trkpt lat="50.452332" lon="3.857161"><time>2026-05-02T19:54:45Z</time></trkpt>
<trkpt lat="50.452474" lon="3.857427"><time>2026-05-02T20:04:45Z</time></trkpt>
<trkpt lat="50.452537" lon="3.858354"><time>2026-05-02T20:14:45Z</time></trkpt>
<trkpt lat="50.452641" lon="3.865603"><time>2026-05-02T20:24:45Z</time></trkpt>
<trkpt lat="50.452513" lon="3.866178"><time>2026-05-02T20:34:45Z</time></trkpt>
<trkpt lat="50.452657" lon="3.866834"><time>2026-05-02T20:44:45Z</time></trkpt>
<trkpt lat="50.452687" lon="3.868774"><time>2026-05-02T20:54:45Z</time></trkpt>
<trkpt lat="50.452575" lon="3.869186"><time>2026-05-02T21:04:45Z</time></trkpt>
<trkpt lat="50.452532" lon="3.869585"><time>2026-05-02T21:14:45Z</time></trkpt>
<trkpt lat="50.452182" lon="3.869855"><time>2026-05-02T21:24:45Z</time></trkpt>
<trkpt lat="50.452221" lon="3.870370"><time>2026-05-02T21:34:45Z</time></trkpt>
</trkseg>
</trk>
<trk>
<name>hqgqgi23</name>
<cmt>v</cmt>
<desc>Quaregnon Sentier n°i23 </desc>
<link href="https://chemins.be/quaregnon/sentier/i23"/><trkseg>
<trkpt lat="50.455060" lon="3.858140"><time>2026-05-02T19:54:45Z</time></trkpt>
<trkpt lat="50.455429" lon="3.859884"><time>2026-05-02T20:04:45Z</time></trkpt>
</trkseg>
</trk>
<trk>
<name>hqgqgi24</name>
<cmt>s</cmt>
<desc>Quaregnon Chemin n°i24 Chausée des Mines de Piquery</desc>
<link href="https://chemins.be/quaregnon/chemin/i24"/><trkseg>
<trkpt lat="50.433101" lon="3.872468"><time>2026-05-02T19:54:45Z</time></trkpt>
<trkpt lat="50.431713" lon="3.873286"><time>2026-05-02T20:04:45Z</time></trkpt>
</trkseg></trk>
<trk>
<name>hqgqgi24</name>
<cmt>v</cmt>
<desc>Quaregnon Chemin n°i24 Chausée des Mines de Piquery</desc>
<link href="https://chemins.be/quaregnon/chemin/i24"/><trkseg>
<trkpt lat="50.431713" lon="3.873286"><time>2026-05-02T20:04:45Z</time></trkpt>
<trkpt lat="50.431424" lon="3.873418"><time>2026-05-02T20:14:45Z</time></trkpt>
</trkseg></trk>
<trk>
<name>hqgqgi24</name>
<cmt>r</cmt>
<desc>Quaregnon Chemin n°i24 Chausée des Mines de Piquery</desc>
<link href="https://chemins.be/quaregnon/chemin/i24"/><trkseg>
<trkpt lat="50.431424" lon="3.873418"><time>2026-05-02T20:14:45Z</time></trkpt>
<trkpt lat="50.431152" lon="3.873526"><time>2026-05-02T20:24:45Z</time></trkpt>
<trkpt lat="50.430921" lon="3.873491"><time>2026-05-02T20:34:45Z</time></trkpt>
<trkpt lat="50.430799" lon="3.873590"><time>2026-05-02T20:44:45Z</time></trkpt>
<trkpt lat="50.426551" lon="3.874910"><time>2026-05-02T20:54:45Z</time></trkpt>
</trkseg></trk>
<trk>
<name>hqgqgi24</name>
<cmt>q</cmt>
<desc>Quaregnon Chemin n°i24 Chausée des Mines de Piquery</desc>
<link href="https://chemins.be/quaregnon/chemin/i24"/><trkseg>
<trkpt lat="50.426551" lon="3.874910"><time>2026-05-02T20:54:45Z</time></trkpt>
<trkpt lat="50.425942" lon="3.875076"><time>2026-05-02T21:04:45Z</time></trkpt>
<trkpt lat="50.424341" lon="3.875515"><time>2026-05-02T21:14:45Z</time></trkpt>
</trkseg></trk>
<trk>
<name>hqgqgi24</name>
<cmt>s</cmt>
<desc>Quaregnon Chemin n°i24 Chausée des Mines de Piquery</desc>
<link href="https://chemins.be/quaregnon/chemin/i24"/><trkseg>
<trkpt lat="50.424341" lon="3.875515"><time>2026-05-02T21:14:45Z</time></trkpt>
<trkpt lat="50.423706" lon="3.875689"><time>2026-05-02T21:24:45Z</time></trkpt>
<trkpt lat="50.420984" lon="3.876434"><time>2026-05-02T21:34:45Z</time></trkpt>
</trkseg>
</trk>
<trk>
<name>hqgqgi25</name>
<cmt>q</cmt>
<desc>Quaregnon Chemin n°i25 </desc>
<link href="https://chemins.be/quaregnon/chemin/i25"/><trkseg>
<trkpt lat="50.423304" lon="3.869286"><time>2026-05-02T19:54:45Z</time></trkpt>
<trkpt lat="50.423400" lon="3.871479"><time>2026-05-02T20:04:45Z</time></trkpt>
<trkpt lat="50.423862" lon="3.872574"><time>2026-05-02T20:14:45Z</time></trkpt>
<trkpt lat="50.424847" lon="3.873644"><time>2026-05-02T20:24:45Z</time></trkpt>
</trkseg></trk>
<trk>
<name>hqgqgi25</name>
<cmt>s</cmt>
<desc>Quaregnon Chemin n°i25 </desc>
<link href="https://chemins.be/quaregnon/chemin/i25"/><trkseg>
<trkpt lat="50.424847" lon="3.873644"><time>2026-05-02T20:24:45Z</time></trkpt>
<trkpt lat="50.425227" lon="3.874057"><time>2026-05-02T20:34:45Z</time></trkpt>
</trkseg></trk>
<trk>
<name>hqgqgi25</name>
<cmt>q</cmt>
<desc>Quaregnon Chemin n°i25 </desc>
<link href="https://chemins.be/quaregnon/chemin/i25"/><trkseg>
<trkpt lat="50.425227" lon="3.874057"><time>2026-05-02T20:34:45Z</time></trkpt>
<trkpt lat="50.426093" lon="3.874998"><time>2026-05-02T20:44:45Z</time></trkpt>
</trkseg>
</trk>
<trk>
<name>hqgqgi26</name>
<cmt>v</cmt>
<desc>Quaregnon Chemin n°i26 Rue de Pâturages</desc>
<link href="https://chemins.be/quaregnon/chemin/i26"/><trkseg>
<trkpt lat="50.418951" lon="3.865911"><time>2026-05-02T19:54:45Z</time></trkpt>
<trkpt lat="50.419618" lon="3.865782"><time>2026-05-02T20:04:45Z</time></trkpt>
<trkpt lat="50.420345" lon="3.866014"><time>2026-05-02T20:14:45Z</time></trkpt>
</trkseg>
</trk>
<trk>
<name>hqgqgi27</name>
<cmt>v</cmt>
<desc>Quaregnon Chemin n°i27 </desc>
<link href="https://chemins.be/quaregnon/chemin/i27"/><trkseg>
<trkpt lat="50.431539" lon="3.868661"><time>2026-05-02T19:54:45Z</time></trkpt>
<trkpt lat="50.431161" lon="3.869698"><time>2026-05-02T20:04:45Z</time></trkpt>
<trkpt lat="50.430751" lon="3.869956"><time>2026-05-02T20:14:45Z</time></trkpt>
<trkpt lat="50.429949" lon="3.869898"><time>2026-05-02T20:24:45Z</time></trkpt>
</trkseg></trk>
<trk>
<name>hqgqgi27</name>
<cmt>d</cmt>
<desc>Quaregnon Chemin n°i27 </desc>
<link href="https://chemins.be/quaregnon/chemin/i27"/><trkseg>
<trkpt lat="50.429949" lon="3.869898"><time>2026-05-02T20:24:45Z</time></trkpt>
<trkpt lat="50.427343" lon="3.867488"><time>2026-05-02T20:34:45Z</time></trkpt>
<trkpt lat="50.427056" lon="3.867466"><time>2026-05-02T20:44:45Z</time></trkpt>
</trkseg>
</trk>
<trk>
<name>hqgqgi28</name>
<cmt>v</cmt>
<desc>Quaregnon Sentier n°i28 </desc>
<link href="https://chemins.be/quaregnon/sentier/i28"/><trkseg>
<trkpt lat="50.453986" lon="3.854077"><time>2026-05-02T19:54:45Z</time></trkpt>
<trkpt lat="50.453781" lon="3.853801"><time>2026-05-02T20:04:45Z</time></trkpt>
<trkpt lat="50.453362" lon="3.853980"><time>2026-05-02T20:14:45Z</time></trkpt>
<trkpt lat="50.452562" lon="3.854874"><time>2026-05-02T20:24:45Z</time></trkpt>
<trkpt lat="50.452383" lon="3.855033"><time>2026-05-02T20:34:45Z</time></trkpt>
</trkseg>
</trk>
<trk>
<name>hqgqgi29</name>
<cmt>v</cmt>
<desc>Quaregnon Sentier n°i29 </desc>
<link href="https://chemins.be/quaregnon/sentier/i29"/><trkseg>
<trkpt lat="50.435206" lon="3.852725"><time>2026-05-02T19:54:45Z</time></trkpt>
<trkpt lat="50.435443" lon="3.851609"><time>2026-05-02T20:04:45Z</time></trkpt>
<trkpt lat="50.433338" lon="3.849913"><time>2026-05-02T20:14:45Z</time></trkpt>
<trkpt lat="50.432339" lon="3.849678"><time>2026-05-02T20:24:45Z</time></trkpt>
<trkpt lat="50.431949" lon="3.850076"><time>2026-05-02T20:34:45Z</time></trkpt>
<trkpt lat="50.431830" lon="3.850339"><time>2026-05-02T20:44:45Z</time></trkpt>
<trkpt lat="50.431753" lon="3.850372"><time>2026-05-02T20:54:45Z</time></trkpt>
</trkseg>
</trk>
<trk>
<name>hqgqgi3</name>
<cmt>v</cmt>
<desc>Quaregnon Sentier n°i3 </desc>
<link href="https://chemins.be/quaregnon/sentier/i3"/><trkseg>
<trkpt lat="50.436925" lon="3.868833"><time>2026-05-02T19:54:45Z</time></trkpt>
<trkpt lat="50.436679" lon="3.868875"><time>2026-05-02T20:04:45Z</time></trkpt>
</trkseg></trk>
<trk>
<name>hqgqgi3</name>
<cmt>b</cmt>
<desc>Quaregnon Sentier n°i3 </desc>
<link href="https://chemins.be/quaregnon/sentier/i3"/><trkseg>
<trkpt lat="50.436679" lon="3.868875"><time>2026-05-02T20:04:45Z</time></trkpt>
<trkpt lat="50.436355" lon="3.868913"><time>2026-05-02T20:14:45Z</time></trkpt>
<trkpt lat="50.436142" lon="3.868849"><time>2026-05-02T20:24:45Z</time></trkpt>
<trkpt lat="50.435945" lon="3.868773"><time>2026-05-02T20:34:45Z</time></trkpt>
</trkseg>
</trk>
<trk>
<name>hqgqgi30</name>
<cmt>v</cmt>
<desc>Quaregnon Sentier n°i30 </desc>
<link href="https://chemins.be/quaregnon/sentier/i30"/><trkseg>
<trkpt lat="50.432253" lon="3.852961"><time>2026-05-02T19:54:45Z</time></trkpt>
<trkpt lat="50.432271" lon="3.851702"><time>2026-05-02T20:04:45Z</time></trkpt>
<trkpt lat="50.432531" lon="3.851480"><time>2026-05-02T20:14:45Z</time></trkpt>
<trkpt lat="50.432431" lon="3.851967"><time>2026-05-02T20:24:45Z</time></trkpt>
<trkpt lat="50.432508" lon="3.852782"><time>2026-05-02T20:34:45Z</time></trkpt>
<trkpt lat="50.432804" lon="3.852525"><time>2026-05-02T20:44:45Z</time></trkpt>
<trkpt lat="50.434294" lon="3.852160"><time>2026-05-02T20:54:45Z</time></trkpt>
<trkpt lat="50.433852" lon="3.851416"><time>2026-05-02T21:04:45Z</time></trkpt>
<trkpt lat="50.433970" lon="3.850930"><time>2026-05-02T21:14:45Z</time></trkpt>
<trkpt lat="50.433251" lon="3.850329"><time>2026-05-02T21:24:45Z</time></trkpt>
<trkpt lat="50.432308" lon="3.850100"><time>2026-05-02T21:34:45Z</time></trkpt>
<trkpt lat="50.431761" lon="3.850379"><time>2026-05-02T21:44:45Z</time></trkpt>
</trkseg>
</trk>
<trk>
<name>hqgqgi31</name>
<cmt>r</cmt>
<desc>Quaregnon Chemin n°i31 Rue de Wasmuel</desc>
<link href="https://chemins.be/quaregnon/chemin/i31"/><trkseg>
<trkpt lat="50.448290" lon="3.854140"><time>2026-05-02T19:54:45Z</time></trkpt>
<trkpt lat="50.448563" lon="3.853962"><time>2026-05-02T20:04:45Z</time></trkpt>
</trkseg>
</trk>
<trk>
<name>hqgqgi32</name>
<cmt>v</cmt>
<desc>Quaregnon Sentier n°i32 Ruelle Baillot</desc>
<link href="https://chemins.be/quaregnon/sentier/i32"/><trkseg>
<trkpt lat="50.436180" lon="3.865391"><time>2026-05-02T19:54:45Z</time></trkpt>
<trkpt lat="50.436340" lon="3.864976"><time>2026-05-02T20:04:45Z</time></trkpt>
<trkpt lat="50.436638" lon="3.864444"><time>2026-05-02T20:14:45Z</time></trkpt>
</trkseg>
</trk>
<trk>
<name>hqgqgi33</name>
<cmt>v</cmt>
<desc>Quaregnon Sentier n°i33 </desc>
<link href="https://chemins.be/quaregnon/sentier/i33"/><trkseg>
<trkpt lat="50.444667" lon="3.854311"><time>2026-05-02T19:54:45Z</time></trkpt>
<trkpt lat="50.442977" lon="3.854619"><time>2026-05-02T20:04:45Z</time></trkpt>
</trkseg>
</trk>
<trk>
<name>hqgqgi34</name>
<cmt>v</cmt>
<desc>Quaregnon Sentier n°i34 </desc>
<link href="https://chemins.be/quaregnon/sentier/i34"/><trkseg>
<trkpt lat="50.431892" lon="3.876550"><time>2026-05-02T19:54:45Z</time></trkpt>
<trkpt lat="50.431765" lon="3.876507"><time>2026-05-02T20:04:45Z</time></trkpt>
</trkseg>
</trk>
<trk>
<name>hqgqgi4</name>
<cmt>v</cmt>
<desc>Quaregnon Sentier n°i4 </desc>
<link href="https://chemins.be/quaregnon/sentier/i4"/><trkseg>
<trkpt lat="50.429955" lon="3.856433"><time>2026-05-02T19:54:45Z</time></trkpt>
<trkpt lat="50.430269" lon="3.854755"><time>2026-05-02T20:04:45Z</time></trkpt>
</trkseg></trk>
<trk>
<name>hqgqgi4</name>
<cmt>q</cmt>
<desc>Quaregnon Sentier n°i4 </desc>
<link href="https://chemins.be/quaregnon/sentier/i4"/><trkseg>
<trkpt lat="50.430269" lon="3.854755"><time>2026-05-02T20:04:45Z</time></trkpt>
<trkpt lat="50.430504" lon="3.853645"><time>2026-05-02T20:14:45Z</time></trkpt>
</trkseg>
</trk>
<trk>
<name>hqgqgi5</name>
<cmt>v</cmt>
<desc>Quaregnon Sentier n°i5 </desc>
<link href="https://chemins.be/quaregnon/sentier/i5"/><trkseg>
<trkpt lat="50.430319" lon="3.854826"><time>2026-05-02T19:54:45Z</time></trkpt>
<trkpt lat="50.431132" lon="3.855308"><time>2026-05-02T20:04:45Z</time></trkpt>
</trkseg>
</trk>
<trk>
<name>hqgqgi6</name>
<cmt>v</cmt>
<desc>Quaregnon Chemin n°i6 RAVeL de la Ligne 98</desc>
<link href="https://chemins.be/quaregnon/chemin/i6"/><trkseg>
<trkpt lat="50.424775" lon="3.873873"><time>2026-05-02T19:54:45Z</time></trkpt>
<trkpt lat="50.424805" lon="3.874053"><time>2026-05-02T20:04:45Z</time></trkpt>
<trkpt lat="50.424712" lon="3.874207"><time>2026-05-02T20:14:45Z</time></trkpt>
<trkpt lat="50.424635" lon="3.874333"><time>2026-05-02T20:24:45Z</time></trkpt>
<trkpt lat="50.424155" lon="3.875113"><time>2026-05-02T20:34:45Z</time></trkpt>
<trkpt lat="50.423855" lon="3.875873"><time>2026-05-02T20:44:45Z</time></trkpt>
<trkpt lat="50.423546" lon="3.876177"><time>2026-05-02T20:54:45Z</time></trkpt>
<trkpt lat="50.423417" lon="3.876419"><time>2026-05-02T21:04:45Z</time></trkpt>
<trkpt lat="50.423263" lon="3.876505"><time>2026-05-02T21:14:45Z</time></trkpt>
<trkpt lat="50.422341" lon="3.876442"><time>2026-05-02T21:24:45Z</time></trkpt>
</trkseg>
</trk>
<trk>
<name>hqgqgi7</name>
<cmt>v</cmt>
<desc>Quaregnon Sentier n°i7 </desc>
<link href="https://chemins.be/quaregnon/sentier/i7"/><trkseg>
<trkpt lat="50.431123" lon="3.854536"><time>2026-05-02T19:54:45Z</time></trkpt>
<trkpt lat="50.431136" lon="3.855292"><time>2026-05-02T20:04:45Z</time></trkpt>
<trkpt lat="50.431198" lon="3.856263"><time>2026-05-02T20:14:45Z</time></trkpt>
<trkpt lat="50.431259" lon="3.856489"><time>2026-05-02T20:24:45Z</time></trkpt>
<trkpt lat="50.431277" lon="3.856939"><time>2026-05-02T20:34:45Z</time></trkpt>
<trkpt lat="50.431167" lon="3.857256"><time>2026-05-02T20:44:45Z</time></trkpt>
</trkseg>
</trk>
<trk>
<name>hqgqgi8</name>
<cmt>v</cmt>
<desc>Quaregnon Sentier n°i8 </desc>
<link href="https://chemins.be/quaregnon/sentier/i8"/><trkseg>
<trkpt lat="50.421493" lon="3.870527"><time>2026-05-02T19:54:45Z</time></trkpt>
<trkpt lat="50.421281" lon="3.871106"><time>2026-05-02T20:04:45Z</time></trkpt>
<trkpt lat="50.420823" lon="3.871632"><time>2026-05-02T20:14:45Z</time></trkpt>
</trkseg>
</trk>
<trk>
<name>hqgqgi9</name>
<cmt>v</cmt>
<desc>Quaregnon Sentier n°i9 </desc>
<link href="https://chemins.be/quaregnon/sentier/i9"/><trkseg>
<trkpt lat="50.428530" lon="3.856207"><time>2026-05-02T19:54:45Z</time></trkpt>
<trkpt lat="50.428058" lon="3.855397"><time>2026-05-02T20:04:45Z</time></trkpt>
</trkseg>
</trk>
<trk>
<name>hqgqgL153</name>
<cmt>q</cmt>
<desc>Quaregnon Chemin n°L153 </desc>
<link href="https://chemins.be/quaregnon/chemin/L153"/><trkseg>
<trkpt lat="50.421303" lon="3.883864"><time>2026-05-02T19:54:45Z</time></trkpt>
<trkpt lat="50.421255" lon="3.882920"><time>2026-05-02T20:04:45Z</time></trkpt>
<trkpt lat="50.421245" lon="3.881334"><time>2026-05-02T20:14:45Z</time></trkpt>
<trkpt lat="50.422515" lon="3.876453"><time>2026-05-02T20:24:45Z</time></trkpt>
</trkseg></trk>
<trk>
<name>hqgqgL153</name>
<cmt>s</cmt>
<desc>Quaregnon Chemin n°L153 </desc>
<link href="https://chemins.be/quaregnon/chemin/L153"/><trkseg>
<trkpt lat="50.422515" lon="3.876453"><time>2026-05-02T20:24:45Z</time></trkpt>
<trkpt lat="50.422685" lon="3.875843"><time>2026-05-02T20:34:45Z</time></trkpt>
</trkseg></trk>
<trk>
<name>hqgqgL153</name>
<cmt>q</cmt>
<desc>Quaregnon Chemin n°L153 </desc>
<link href="https://chemins.be/quaregnon/chemin/L153"/><trkseg>
<trkpt lat="50.422685" lon="3.875843"><time>2026-05-02T20:34:45Z</time></trkpt>
<trkpt lat="50.422935" lon="3.874733"><time>2026-05-02T20:44:45Z</time></trkpt>
<trkpt lat="50.422995" lon="3.874033"><time>2026-05-02T20:54:45Z</time></trkpt>
<trkpt lat="50.423045" lon="3.872023"><time>2026-05-02T21:04:45Z</time></trkpt>
<trkpt lat="50.422725" lon="3.870143"><time>2026-05-02T21:14:45Z</time></trkpt>
</trkseg>
</trk>
<trk>
<name>hqgqgL98</name>
<cmt>v</cmt>
<desc>Quaregnon Chemin n°L98 Ligne 98</desc>
<link href="https://chemins.be/quaregnon/chemin/L98"/><trkseg>
<trkpt lat="50.420742" lon="3.851631"><time>2026-05-02T19:54:45Z</time></trkpt>
<trkpt lat="50.420799" lon="3.852940"><time>2026-05-02T20:04:45Z</time></trkpt>
<trkpt lat="50.420573" lon="3.855735"><time>2026-05-02T20:14:45Z</time></trkpt>
<trkpt lat="50.420415" lon="3.857883"><time>2026-05-02T20:24:45Z</time></trkpt>
<trkpt lat="50.420845" lon="3.860253"><time>2026-05-02T20:34:45Z</time></trkpt>
<trkpt lat="50.421565" lon="3.862563"><time>2026-05-02T20:44:45Z</time></trkpt>
<trkpt lat="50.421715" lon="3.863783"><time>2026-05-02T20:54:45Z</time></trkpt>
<trkpt lat="50.422665" lon="3.869793"><time>2026-05-02T21:04:45Z</time></trkpt>
<trkpt lat="50.423235" lon="3.871593"><time>2026-05-02T21:14:45Z</time></trkpt>
<trkpt lat="50.423885" lon="3.872933"><time>2026-05-02T21:24:45Z</time></trkpt>
<trkpt lat="50.424665" lon="3.873783"><time>2026-05-02T21:34:45Z</time></trkpt>
<trkpt lat="50.424775" lon="3.873893"><time>2026-05-02T21:44:45Z</time></trkpt>
</trkseg></trk>
<trk>
<name>hqgqgL98</name>
<cmt>s</cmt>
<desc>Quaregnon Chemin n°L98 Ligne 98</desc>
<link href="https://chemins.be/quaregnon/chemin/L98"/><trkseg>
<trkpt lat="50.424775" lon="3.873893"><time>2026-05-02T21:44:45Z</time></trkpt>
<trkpt lat="50.425055" lon="3.874203"><time>2026-05-02T21:54:45Z</time></trkpt>
</trkseg></trk>
<trk>
<name>hqgqgL98</name>
<cmt>d</cmt>
<desc>Quaregnon Chemin n°L98 Ligne 98</desc>
<link href="https://chemins.be/quaregnon/chemin/L98"/><trkseg>
<trkpt lat="50.425055" lon="3.874203"><time>2026-05-02T21:54:45Z</time></trkpt>
<trkpt lat="50.426085" lon="3.875203"><time>2026-05-02T22:04:45Z</time></trkpt>
<trkpt lat="50.427095" lon="3.876273"><time>2026-05-02T22:14:45Z</time></trkpt>
</trkseg></trk>
<trk>
<name>hqgqgL98</name>
<cmt>v</cmt>
<desc>Quaregnon Chemin n°L98 Ligne 98</desc>
<link href="https://chemins.be/quaregnon/chemin/L98"/><trkseg>
<trkpt lat="50.427095" lon="3.876273"><time>2026-05-02T22:14:45Z</time></trkpt>
<trkpt lat="50.427963" lon="3.877160"><time>2026-05-02T22:24:45Z</time></trkpt>
<trkpt lat="50.428568" lon="3.877782"><time>2026-05-02T22:34:45Z</time></trkpt>
<trkpt lat="50.429361" lon="3.878764"><time>2026-05-02T22:44:45Z</time></trkpt>
<trkpt lat="50.430205" lon="3.880293"><time>2026-05-02T22:54:45Z</time></trkpt>
<trkpt lat="50.430565" lon="3.881413"><time>2026-05-02T23:04:45Z</time></trkpt>
</trkseg>
</trk>
<trk>
<name>hqgqgL98C</name>
<cmt>v</cmt>
<desc>Quaregnon Chemin n°L98C </desc>
<link href="https://chemins.be/quaregnon/chemin/L98C"/><trkseg>
<trkpt lat="50.431323" lon="3.881558"><time>2026-05-02T19:54:45Z</time></trkpt>
<trkpt lat="50.431745" lon="3.876633"><time>2026-05-02T20:04:45Z</time></trkpt>
<trkpt lat="50.431895" lon="3.873713"><time>2026-05-02T20:14:45Z</time></trkpt>
<trkpt lat="50.431855" lon="3.871843"><time>2026-05-02T20:24:45Z</time></trkpt>
<trkpt lat="50.431705" lon="3.868863"><time>2026-05-02T20:34:45Z</time></trkpt>
<trkpt lat="50.431535" lon="3.863753"><time>2026-05-02T20:44:45Z</time></trkpt>
<trkpt lat="50.431385" lon="3.860403"><time>2026-05-02T20:54:45Z</time></trkpt>
<trkpt lat="50.431265" lon="3.857423"><time>2026-05-02T21:04:45Z</time></trkpt>
<trkpt lat="50.431195" lon="3.854632"><time>2026-05-02T21:14:45Z</time></trkpt>
<trkpt lat="50.431155" lon="3.853302"><time>2026-05-02T21:24:45Z</time></trkpt>
<trkpt lat="50.431275" lon="3.852382"><time>2026-05-02T21:34:45Z</time></trkpt>
<trkpt lat="50.431615" lon="3.850532"><time>2026-05-02T21:44:45Z</time></trkpt>
<trkpt lat="50.432026" lon="3.849571"><time>2026-05-02T21:54:45Z</time></trkpt>
</trkseg>
</trk>
<trk>
<name>hqgwmi1</name>
<cmt>v</cmt>
<desc>Wasmuel Sentier n°i1 </desc>
<link href="https://chemins.be/wasmuel/sentier/i1"/><trkseg>
<trkpt lat="50.444023" lon="3.849912"><time>2026-05-02T19:54:45Z</time></trkpt>
<trkpt lat="50.444026" lon="3.850489"><time>2026-05-02T20:04:45Z</time></trkpt>
<trkpt lat="50.443495" lon="3.852494"><time>2026-05-02T20:14:45Z</time></trkpt>
</trkseg>
</trk>
<trk>
<name>hqgwmi2</name>
<cmt>v</cmt>
<desc>Wasmuel Sentier n°i2 Sentier du Pied Vert</desc>
<link href="https://chemins.be/wasmuel/sentier/i2"/><trkseg>
<trkpt lat="50.438485" lon="3.847502"><time>2026-05-02T19:54:45Z</time></trkpt>
<trkpt lat="50.438625" lon="3.846762"><time>2026-05-02T20:04:45Z</time></trkpt>
<trkpt lat="50.438714" lon="3.846212"><time>2026-05-02T20:14:45Z</time></trkpt>
<trkpt lat="50.438743" lon="3.846038"><time>2026-05-02T20:24:45Z</time></trkpt>
<trkpt lat="50.439045" lon="3.844172"><time>2026-05-02T20:34:45Z</time></trkpt>
<trkpt lat="50.438755" lon="3.842582"><time>2026-05-02T20:44:45Z</time></trkpt>
<trkpt lat="50.439595" lon="3.841912"><time>2026-05-02T20:54:45Z</time></trkpt>
</trkseg>
</trk>
<trk>
<name>hqgwmi3</name>
<cmt>b</cmt>
<desc>Wasmuel Chemin n°i3 </desc>
<link href="https://chemins.be/wasmuel/chemin/i3"/><trkseg>
<trkpt lat="50.439574" lon="3.841605"><time>2026-05-02T19:54:45Z</time></trkpt>
<trkpt lat="50.441178" lon="3.840138"><time>2026-05-02T20:04:45Z</time></trkpt>
</trkseg></trk>
<trk>
<name>hqgwmi3</name>
<cmt>v</cmt>
<desc>Wasmuel Chemin n°i3 </desc>
<link href="https://chemins.be/wasmuel/chemin/i3"/><trkseg>
<trkpt lat="50.441178" lon="3.840138"><time>2026-05-02T20:04:45Z</time></trkpt>
<trkpt lat="50.441914" lon="3.839416"><time>2026-05-02T20:14:45Z</time></trkpt>
<trkpt lat="50.442488" lon="3.839212"><time>2026-05-02T20:24:45Z</time></trkpt>
<trkpt lat="50.443008" lon="3.839062"><time>2026-05-02T20:34:45Z</time></trkpt>
</trkseg></trk>
<trk>
<name>hqgwmi3</name>
<cmt>s</cmt>
<desc>Wasmuel Chemin n°i3 </desc>
<link href="https://chemins.be/wasmuel/chemin/i3"/><trkseg>
<trkpt lat="50.443008" lon="3.839062"><time>2026-05-02T20:34:45Z</time></trkpt>
<trkpt lat="50.444053" lon="3.839035"><time>2026-05-02T20:44:45Z</time></trkpt>
<trkpt lat="50.444723" lon="3.838552"><time>2026-05-02T20:54:45Z</time></trkpt>
<trkpt lat="50.445181" lon="3.837469"><time>2026-05-02T21:04:45Z</time></trkpt>
<trkpt lat="50.445304" lon="3.836803"><time>2026-05-02T21:14:45Z</time></trkpt>
<trkpt lat="50.445228" lon="3.836095"><time>2026-05-02T21:24:45Z</time></trkpt>
<trkpt lat="50.445223" lon="3.835435"><time>2026-05-02T21:34:45Z</time></trkpt>
<trkpt lat="50.445201" lon="3.832598"><time>2026-05-02T21:44:45Z</time></trkpt>
</trkseg>
</trk>
<trk>
<name>hqgwmi4</name>
<cmt>s</cmt>
<desc>Wasmuel Chemin n°i4 </desc>
<link href="https://chemins.be/wasmuel/chemin/i4"/><trkseg>
<trkpt lat="50.441275" lon="3.849686"><time>2026-05-02T19:54:45Z</time></trkpt>
<trkpt lat="50.438086" lon="3.849368"><time>2026-05-02T20:04:45Z</time></trkpt>
<trkpt lat="50.437448" lon="3.849305"><time>2026-05-02T20:14:45Z</time></trkpt>
<trkpt lat="50.437218" lon="3.848637"><time>2026-05-02T20:24:45Z</time></trkpt>
<trkpt lat="50.436853" lon="3.847264"><time>2026-05-02T20:34:45Z</time></trkpt>
</trkseg>
</trk>
<trk>
<name>hqgwmi5</name>
<cmt>v</cmt>
<desc>Wasmuel Sentier n°i5 </desc>
<link href="https://chemins.be/wasmuel/sentier/i5"/><trkseg>
<trkpt lat="50.437583" lon="3.848105"><time>2026-05-02T19:54:45Z</time></trkpt>
<trkpt lat="50.437731" lon="3.847504"><time>2026-05-02T20:04:45Z</time></trkpt>
</trkseg>
</trk>
<trk>
<name>hqgwmL98C</name>
<cmt>v</cmt>
<desc>Wasmuel Chemin n°L98C </desc>
<link href="https://chemins.be/wasmuel/chemin/L98C"/><trkseg>
<trkpt lat="50.434139" lon="3.846974"><time>2026-05-02T19:54:45Z</time></trkpt>
<trkpt lat="50.436330" lon="3.844861"><time>2026-05-02T20:04:45Z</time></trkpt>
</trkseg></trk>
<trk>
<name>hqgwmL98C</name>
<cmt>b</cmt>
<desc>Wasmuel Chemin n°L98C </desc>
<link href="https://chemins.be/wasmuel/chemin/L98C"/><trkseg>
<trkpt lat="50.436330" lon="3.844861"><time>2026-05-02T20:04:45Z</time></trkpt>
<trkpt lat="50.438735" lon="3.842492"><time>2026-05-02T20:14:45Z</time></trkpt>
<trkpt lat="50.439559" lon="3.841677"><time>2026-05-02T20:24:45Z</time></trkpt>
</trkseg>
</trk>
</gpx>